GFSFLT1_prec_cthk_000.txt.gz
RH
30 32 34 36 41 44 46 48 47 49 51 51 50 50 49 47 45 44 44 45 45 45 46 47 49 49 49 49 50 50 52 52
31 34 35 38 42 47 49 50 52 54 55 55 55 54 51 49 48 46 47 48 49 50 48 48 50 51 53 53 52 52 52 53
32 34 38 42 47 52 54 54 59 59 60 58 57 56 56 55 55 52 49 48 47 49 50 50 49 50 51 52 53 55 55 56
37 40 43 46 51 57 61 61 61 60 60 61 59 56 57 56 56 55 54 50 47 47 49 51 51 52 51 51 52 53 54 53
42 45 49 51 54 57 59 60 59 59 58 57 56 55 55 56 57 54 52 50 48 48 49 51 54 57 56 55 55 60 60 60
47 50 53 55 55 57 60 62 61 58 57 58 57 56 58 55 52 48 48 47 49 48 48 48 47 49 50 53 59 61 62 64
53 57 59 61 62 63 63 63 61 58 59 61 62 61 55 50 49 45 42 39 36 35 36 37 38 41 43 50 58 60 66 66
58 60 62 65 65 66 67 68 65 63 63 62 60 59 58 52 45 38 35 34 32 30 30 30 33 36 41 47 56 62 63 74
63 65 68 67 67 68 71 70 71 69 63 58 56 55 53 47 41 38 36 36 35 30 32 34 38 43 48 56 61 68 72 90
67 69 69 70 72 74 72 70 69 67 63 62 61 56 49 47 46 41 41 42 43 44 46 50 56 55 59 70 78 88 86 88
67 69 71 71 70 69 70 69 67 65 64 60 53 55 54 47 42 39 42 46 48 52 56 57 64 66 70 71 80 80 77 82
68 69 68 71 72 71 71 69 64 56 57 57 60 60 50 42 37 38 40 44 45 51 58 65 74 78 80 77 77 83 81 77
69 72 74 76 71 67 65 61 61 57 58 62 65 61 53 49 44 41 43 50 57 60 72 85 84 84 85 86 84 81 78 73
69 70 73 76 74 71 69 65 61 65 71 66 61 56 56 56 48 47 51 62 71 80 85 91 93 91 90 88 83 77 68 60
61 64 70 72 71 69 68 65 70 73 66 59 57 58 58 55 57 55 65 75 85 90 97 97 95 92 88 84 77 67 61 57
65 69 71 72 71 69 70 73 68 65 61 61 60 62 65 64 63 67 75 89 97 98 97 96 95 93 90 84 71 62 58 52
76 74 74 76 76 72 70 68 70 68 61 66 68 62 63 68 76 84 92 97 96 95 92 91 92 87 79 70 64 59 51 42
79 80 76 72 73 73 73 68 62 61 60 58 68 69 67 74 81 87 91 91 89 88 85 79 73 69 64 59 54 47 39 32
80 75 76 77 79 73 66 65 61 59 58 63 71 75 69 77 83 82 77 73 70 68 66 64 60 56 54 49 43 36 30 27

GFSFLT1_prec_cthk_003.txt.gz
RH
32 30 33 37 41 45 46 46 49 52 52 54 57 54 52 51 50 50 49 48 48 47 43 42 45 46 46 46 47 48 48 47
30 32 34 37 41 45 48 51 53 54 57 58 57 56 54 52 49 50 51 49 48 48 45 43 42 42 45 47 48 50 49 52
32 34 37 42 47 51 53 55 57 60 61 61 57 54 53 53 54 53 51 51 49 46 43 43 43 43 45 48 50 51 51 52
36 39 44 49 53 56 60 60 60 60 61 60 58 57 57 58 57 55 53 52 49 47 45 45 45 44 44 47 51 52 54 55
42 46 52 54 57 60 63 64 63 62 63 64 63 61 57 57 55 53 50 50 47 45 39 35 34 34 34 37 42 44 52 59
49 54 56 57 59 61 62 65 68 69 69 69 66 65 63 59 55 50 48 42 36 33 32 30 29 27 26 26 27 30 36 45
55 58 60 61 63 66 69 71 72 72 70 67 66 64 63 60 57 51 45 41 38 37 35 33 29 27 27 29 30 32 33 37
60 63 64 66 68 71 73 74 71 67 68 70 69 66 60 54 49 46 44 42 41 41 40 38 35 28 26 29 33 37 43 50
65 67 69 72 72 72 71 69 68 71 74 70 69 66 63 55 55 52 48 42 41 43 42 42 42 41 44 43 48 52 54 62
66 68 68 69 71 73 74 76 80 73 70 64 57 56 55 57 58 50 47 42 40 44 46 48 52 54 64 67 68 72 73 77
60 63 66 69 72 76 78 76 75 71 67 63 63 64 63 61 53 50 45 42 44 46 52 56 60 66 70 75 82 84 79 80
62 64 66 67 70 69 68 70 71 68 66 69 71 69 61 57 48 42 46 47 52 52 57 63 74 80 88 89 96 94 92 87
62 61 60 62 67 68 68 70 70 69 69 70 66 62 62 52 47 46 52 58 58 64 70 75 85 91 93 95 93 92 91 88
63 64 66 70 72 74 73 71 70 72 70 66 62 63 58 57 55 58 60 64 70 71 79 87 93 94 92 92 91 90 89 84
67 68 67 69 70 70 70 71 71 67 62 52 54 60 63 65 62 66 68 76 78 80 86 91 93 91 91 89 88 89 84 74
68 71 71 71 72 67 65 62 64 62 63 66 65 63 68 65 67 69 75 81 82 87 89 90 89 86 84 83 79 73 69 65
74 75 77 75 69 64 63 69 65 63 68 64 63 63 61 59 63 68 75 78 77 75 73 71 69 68 66 64 62 61 59 58
85 82 73 67 76 75 71 63 58 58 58 60 57 54 51 57 62 64 63 59 56 53 53 54 54 53 52 52 52 52 51 46
87 72 76 79 71 63 54 51 56 60 57 56 55 58 60 61 62 59 54 51 46 41 37 35 36 38 41 42 43 42 42 39

GFSFLT1_prec_cthk_006.txt.gz
RH
35 36 39 40 40 46 53 48 48 51 56 56 58 60 58 58 56 53 52 52 49 48 48 46 47 48 46 46 44 44 46 44
37 38 35 37 41 48 55 53 52 57 60 61 64 62 61 61 61 58 56 54 52 52 51 50 47 47 46 43 44 44 43 47
36 37 39 42 46 51 56 56 59 63 66 66 66 67 65 64 64 64 63 62 60 53 48 44 43 41 39 39 39 39 41 45
39 42 43 46 51 57 60 64 66 66 67 68 68 68 68 67 66 63 63 60 54 49 43 38 34 34 35 34 35 35 39 40
44 48 52 54 58 62 65 66 66 65 66 66 67 67 67 65 65 66 64 56 51 44 38 36 34 35 38 38 39 40 42 38
51 55 59 63 64 63 63 63 64 64 65 67 69 69 67 70 71 65 57 51 43 42 41 39 36 35 36 33 32 37 37 38
55 58 60 59 62 64 64 66 68 69 71 71 72 73 77 72 65 58 50 47 51 50 44 39 37 35 34 32 32 31 32 36
57 60 64 65 66 65 67 73 75 77 81 81 82 78 70 62 53 50 50 52 49 45 38 37 36 35 37 40 42 44 43 41
64 65 65 65 65 67 68 73 80 82 78 71 67 63 58 56 56 55 53 51 48 41 40 42 47 48 50 52 58 60 62 62
57 58 60 61 63 68 70 66 65 63 63 63 59 58 56 56 53 54 56 53 48 45 49 53 54 57 61 61 64 70 76 81
60 63 66 67 67 63 62 63 66 64 64 63 61 59 60 59 58 53 50 51 54 55 56 62 63 66 65 69 76 82 89 92
64 62 62 62 62 65 66 67 67 69 66 66 65 63 57 49 49 50 54 59 58 61 67 68 70 71 82 87 92 97 96 95
66 67 66 68 70 71 73 73 70 68 70 66 61 52 54 50 58 63 69 64 65 60 65 68 77 82 91 94 98 97 95 92
66 68 70 74 77 79 82 78 73 67 63 61 56 59 61 58 58 62 68 64 63 66 71 79 87 94 98 98 96 94 94 92
71 74 75 73 76 74 73 73 73 75 70 58 50 53 51 51 56 59 60 68 73 77 82 88 88 84 85 88 91 92 88 84
70 70 72 75 73 70 72 75 72 69 59 53 45 44 48 52 53 55 59 62 63 67 65 63 62 60 58 57 61 67 71 71
71 72 72 69 71 74 72 71 66 55 50 40 42 47 50 54 58 60 59 61 64 59 53 44 38 39 36 33 33 38 44 46
67 63 68 74 78 77 68 59 46 37 42 42 46 52 55 56 60 63 64 62 53 39 34 35 37 39 37 37 36 38 40 45
69 70 74 73 72 66 56 49 43 44 45 46 53 55 56 61 65 67 64 49 37 35 36 39 44 50 48 47 46 48 51 53

GFSFLT1_prec_cthk_009.txt.gz
RH
50 50 45 48 51 52 62 66 55 56 60 61 64 66 67 69 68 65 63 61 59 56 57 56 54 51 51 49 47 47 45 45
47 40 39 43 47 54 63 63 55 58 63 66 69 69 71 72 70 67 66 64 60 58 58 55 52 48 44 38 36 34 35 37
40 39 40 45 52 55 57 58 61 63 66 72 70 69 71 72 72 70 69 66 67 64 59 54 50 43 39 39 37 37 37 40
41 41 43 46 51 56 60 65 67 68 71 70 71 71 71 72 72 71 71 72 67 63 58 51 45 44 43 44 44 44 41 39
44 48 52 56 60 63 66 69 69 68 69 70 71 74 74 76 77 76 74 75 65 57 52 46 48 46 43 42 41 38 37 34
50 54 58 61 63 65 68 67 66 67 66 70 74 76 79 88 86 76 73 68 59 54 49 46 46 44 41 41 41 42 42 42
53 58 61 64 65 64 66 67 68 68 73 76 78 78 75 71 64 63 61 55 47 46 45 48 48 52 51 47 48 48 45 44
60 64 68 65 66 64 64 68 71 72 72 68 62 61 63 64 63 58 49 46 47 50 52 54 55 57 58 57 58 54 58 53
62 61 62 63 61 63 64 67 68 68 64 63 64 63 65 62 58 55 55 53 50 52 51 49 52 53 58 60 61 55 57 63
59 61 65 60 61 63 61 62 61 62 65 66 68 70 68 65 64 62 52 49 50 50 54 52 53 56 60 61 66 64 64 70
64 63 62 61 63 63 63 65 68 74 76 74 72 73 72 65 60 56 54 53 49 48 52 60 62 62 67 68 69 73 76 81
64 64 64 67 64 66 68 70 71 71 75 76 71 65 63 63 61 61 55 52 47 47 48 52 60 65 71 79 80 88 93 95
65 66 69 70 70 69 68 67 71 72 73 68 65 66 60 63 60 48 46 45 48 53 56 62 69 80 85 94 95 91 94 95
69 71 71 70 68 65 67 68 68 67 65 65 67 64 53 46 39 38 43 48 51 54 59 68 73 81 86 83 81 85 88 89
69 69 69 67 67 67 64 67 68 65 65 58 54 42 39 41 43 48 50 51 54 60 63 67 68 64 58 53 46 44 41 50
67 67 65 62 62 63 70 76 67 67 58 52 49 43 42 45 49 49 51 54 61 63 62 60 52 46 49 40 37 34 34 38
71 67 68 66 62 66 71 68 61 62 57 55 50 48 47 52 51 50 54 59 61 65 53 48 50 48 46 40 41 43 43 44
71 69 65 62 59 59 60 66 66 65 62 61 61 55 56 56 55 55 62 68 68 55 53 52 51 53 53 48 47 50 52 53
65 62 56 53 49 53 57 73 60 68 68 67 68 61 59 57 59 62 71 67 57 54 53 52 52 57 62 59 62 64 68 71

GFSFLT1_prec_cthk_015.txt.gz
RH
51 48 48 52 52 54 55 56 63 68 70 67 63 64 66 68 67 68 65 63 63 66 70 66 65 66 67 60 50 43 36 31
44 48 48 56 73 65 63 64 63 65 66 63 69 71 73 70 73 71 67 66 66 69 69 64 56 53 47 47 42 38 33 30
46 49 57 62 65 69 71 62 60 60 64 67 72 75 74 71 69 65 67 70 70 71 63 56 50 48 45 43 41 38 38 40
43 46 50 56 57 58 60 59 60 62 67 71 72 70 64 60 62 68 72 73 68 58 54 54 53 50 48 48 47 47 47 48
43 50 49 49 50 52 54 57 61 65 68 65 61 58 61 64 66 66 64 60 59 59 58 58 54 53 47 43 44 47 49 50
43 42 43 47 51 54 57 61 64 64 58 53 54 55 56 56 55 57 60 61 63 60 56 51 45 47 49 48 46 45 47 50
46 45 46 49 53 58 59 57 56 58 58 56 55 54 53 54 56 56 56 58 56 53 49 47 46 45 43 43 43 40 43 48
54 52 55 55 54 56 57 56 56 55 55 55 58 58 58 59 58 56 57 53 49 47 42 36 34 34 35 38 39 43 43 45
58 56 60 64 66 64 61 59 59 56 57 56 55 58 58 61 62 62 56 51 45 43 41 34 30 32 35 38 42 46 50 50
61 60 62 63 62 64 63 60 60 59 60 62 64 69 68 65 63 56 50 50 41 37 31 28 31 34 36 43 46 49 53 58
69 69 67 65 64 62 60 61 62 65 63 62 62 64 62 56 53 50 42 37 34 26 26 31 35 39 45 47 52 55 61 69
66 66 62 59 59 57 57 59 59 55 53 54 53 47 44 44 46 42 41 38 29 32 34 34 37 39 44 48 52 52 51 47
65 60 58 58 56 55 54 50 48 46 43 40 42 53 54 57 54 57 67 51 54 54 49 48 46 43 47 48 45 44 41 43
59 61 60 58 57 53 48 46 43 42 46 49 49 60 58 71 76 76 66 73 68 64 56 58 51 48 48 46 47 45 45 45
64 64 61 57 54 50 47 44 43 45 46 47 48 56 51 57 73 73 80 92 79 71 57 71 53 54 50 46 45 44 45 45
64 60 58 53 52 49 43 41 41 37 39 39 43 46 61 75 75 71 95 89 82 69 74 74 61 47 47 50 49 50 51 49
60 56 54 54 51 47 46 41 38 38 38 38 36 48 62 62 70 76 91 87 88 71 77 74 50 46 53 60 61 57 54 56
56 54 54 49 46 45 42 41 41 38 36 32 35 44 50 54 63 86 92 92 80 77 74 66 46 56 61 63 57 55 65 77
56 52 49 45 43 41 40 40 37 33 26 26 29 35 41 48 65 98 96 88 86 74 70 49 58 61 59 53 55 70 84 91

GFSFLT1_prec_cthk_018.txt.gz
RH
48 48 50 54 57 67 75 75 79 83 79 64 63 62 73 77 77 74 72 69 69 70 71 70 68 64 56 46 41 38 35 33
50 56 60 61 71 77 76 81 76 70 72 68 69 75 79 80 78 77 72 73 72 69 72 68 58 50 46 44 42 40 40 39
52 58 67 81 79 75 68 65 69 70 67 74 78 79 79 80 78 74 71 69 71 68 61 56 54 51 51 49 47 44 40 39
60 62 64 63 61 62 60 60 61 67 71 75 77 77 77 73 68 67 68 64 61 58 55 55 54 52 49 42 38 38 40 41
58 57 55 52 50 50 52 56 60 62 63 65 67 62 57 55 56 54 54 54 53 52 53 53 49 40 34 35 37 40 43 42
58 55 51 48 48 49 49 52 55 54 54 51 50 51 52 50 52 52 53 55 56 57 54 43 38 38 35 35 36 38 36 36
51 49 49 48 49 50 49 51 53 55 55 54 53 51 51 53 55 62 64 70 59 58 53 42 37 34 31 33 33 35 36 37
57 57 56 51 51 54 57 59 61 62 57 53 54 57 60 62 64 61 76 74 56 53 45 39 31 25 26 27 28 31 34 38
65 63 65 61 60 60 61 60 60 58 57 58 58 60 62 61 57 55 52 47 42 45 47 33 28 28 29 28 32 36 39 42
62 67 71 72 70 64 63 61 59 57 56 57 57 55 50 46 41 38 38 38 44 51 45 40 40 38 40 40 46 47 47 47
72 74 76 73 68 62 61 62 60 57 55 52 47 41 37 36 42 43 46 50 55 62 62 61 58 61 52 58 60 56 51 42
79 81 79 76 68 63 60 59 56 52 48 44 38 39 40 41 46 49 51 53 67 78 78 77 67 72 64 61 59 53 43 47
78 74 72 66 62 60 56 53 49 46 41 41 43 44 41 45 47 44 50 68 71 80 76 68 66 73 68 60 53 45 42 39
74 72 65 59 57 55 52 49 46 40 36 39 36 37 40 43 43 46 63 81 80 76 79 85 85 74 70 57 48 48 46 44
69 65 63 60 57 53 51 47 40 36 34 33 36 40 42 47 47 48 57 68 80 76 80 82 82 73 65 53 51 48 48 50
68 67 64 59 54 51 45 38 38 38 37 40 41 42 31 31 36 38 44 62 64 78 85 84 79 68 58 56 55 53 53 48
70 64 59 54 51 43 38 37 38 38 38 37 33 26 26 31 32 35 48 58 82 86 90 83 76 60 54 56 52 48 45 48
64 58 56 51 43 38 36 36 36 36 34 30 25 27 31 33 34 44 51 75 84 81 87 85 64 52 55 52 49 47 47 66
63 58 51 44 40 38 36 37 36 32 29 25 29 31 35 35 44 50 55 74 81 85 86 55 55 53 51 47 44 44 63 73

GFSFLT1_prec_cthk_021.txt.gz
RH
42 51 57 58 66 77 88 92 92 91 86 75 71 71 70 74 78 78 77 74 73 71 69 62 55 51 49 42 38 37 36 34
49 50 53 62 73 84 88 89 78 75 75 75 74 74 79 81 80 81 78 79 75 68 61 58 55 50 46 44 41 39 35 30
61 61 70 78 82 77 67 68 74 76 73 70 76 81 79 77 77 77 75 70 65 60 58 56 51 48 48 45 40 33 28 28
63 70 69 68 67 63 62 59 60 64 67 68 68 68 69 69 67 63 58 56 56 57 57 57 59 55 45 38 31 28 26 26
67 64 61 59 58 55 54 57 59 61 60 64 65 66 64 64 63 61 60 63 62 60 56 65 62 52 42 29 25 26 28 28
61 59 58 57 55 56 54 55 55 57 61 60 61 62 64 62 61 60 57 61 61 60 56 51 49 47 34 28 30 33 31 30
61 59 59 58 60 59 57 58 59 61 63 64 63 59 58 58 58 58 58 54 49 43 39 37 36 33 30 32 33 35 35 36
64 70 71 70 66 65 66 65 63 60 57 56 57 56 58 56 53 50 46 42 38 37 39 44 44 39 38 40 44 44 50 51
76 72 69 64 67 66 67 63 56 53 54 55 55 53 49 46 42 36 32 35 39 44 49 47 42 51 52 51 51 58 59 60
62 60 63 69 71 68 64 59 55 55 54 52 48 44 42 38 34 33 33 37 39 41 45 50 63 64 69 67 62 57 58 53
60 65 72 71 72 72 69 62 59 57 52 46 44 43 38 37 36 38 43 44 48 53 53 61 67 68 69 68 66 68 59 55
67 71 74 73 73 72 67 62 62 54 47 42 39 36 37 38 38 41 47 50 54 53 51 63 73 74 75 77 74 65 58 50
68 72 76 77 76 70 69 66 56 50 44 38 36 35 33 31 37 45 50 44 41 41 43 58 75 74 81 76 71 66 50 50
67 71 72 69 69 70 69 61 52 44 41 39 35 33 34 36 34 31 28 29 32 40 48 60 67 81 78 82 75 55 50 54
65 65 66 68 72 69 58 51 45 42 40 38 36 35 33 30 30 29 27 31 37 46 54 65 75 75 88 80 68 55 54 53
65 66 71 75 66 61 55 47 42 41 40 37 35 31 29 30 30 29 27 37 48 52 61 74 74 78 80 71 60 51 50 46
66 70 71 70 65 56 50 47 44 41 38 34 32 31 33 33 32 27 31 41 46 57 66 75 77 76 66 55 50 47 45 42
70 69 69 64 58 53 52 48 44 40 37 35 35 38 38 34 29 29 36 47 59 65 69 70 67 54 52 51 46 44 41 39
67 66 64 60 56 55 50 46 43 39 35 37 40 38 32 32 31 36 45 56 65 72 72 62 51 50 52 47 41 39 37 41

GFSFLT1_prec_cthk_024.txt.gz
RH
50 54 57 59 62 65 74 84 88 94 93 86 83 80 76 77 80 86 81 75 80 73 74 67 54 50 48 47 46 43 38 33
54 56 61 63 67 79 95 90 90 87 82 79 75 75 79 84 79 70 71 68 67 63 57 52 52 51 49 47 46 43 39 34
59 59 64 74 85 89 78 75 73 69 64 67 71 73 66 63 61 60 59 58 55 51 50 50 50 50 51 48 41 35 32 28
64 69 72 73 71 67 64 61 57 60 61 56 56 56 57 58 59 59 57 54 52 54 54 54 52 47 40 33 27 22 21 22
64 64 64 65 61 55 54 55 59 59 57 57 59 60 61 61 58 58 58 59 59 57 52 44 39 36 31 27 24 24 26 29
59 65 64 61 58 60 65 66 64 62 62 62 62 63 63 61 62 62 61 56 50 49 42 38 36 34 33 30 30 30 32 36
69 71 65 64 67 75 70 71 71 70 69 64 64 62 60 59 58 54 50 46 37 33 31 30 29 31 29 35 34 34 38 38
61 65 72 80 76 74 72 72 70 69 66 62 60 58 55 51 46 42 36 32 31 30 31 35 37 37 38 46 46 49 50 50
67 79 78 66 67 69 69 70 69 66 63 57 55 49 46 44 41 38 36 37 36 35 39 42 44 46 47 46 47 50 55 52
65 63 59 61 65 68 69 69 67 64 57 56 51 48 46 41 39 38 37 37 37 41 43 47 48 48 48 55 59 64 62 62
57 59 60 61 63 65 67 68 66 60 61 56 50 46 42 41 38 39 36 37 39 41 41 41 45 47 52 59 65 69 68 67
57 56 59 61 65 68 72 68 65 69 61 52 49 47 43 42 40 36 33 31 29 29 36 43 46 47 63 65 66 71 76 74
56 61 63 66 68 72 65 70 74 63 57 54 51 48 44 40 36 31 30 29 28 30 38 42 51 55 54 66 70 74 74 68
61 63 65 66 66 66 72 72 65 59 59 55 50 44 39 35 30 29 28 27 26 32 42 46 54 51 67 69 72 73 67 58
61 64 66 67 66 70 70 63 62 60 56 52 48 40 35 33 31 31 30 28 29 33 43 49 53 61 71 73 69 62 53 49
62 64 65 65 72 69 61 58 59 57 55 51 43 39 35 34 32 31 30 30 33 39 43 50 60 68 68 63 56 48 48 45
62 65 67 76 69 63 62 63 60 56 52 43 38 37 35 34 32 31 33 34 37 43 54 62 64 71 69 50 47 45 46 41
64 69 73 71 68 66 64 61 58 53 43 38 38 38 36 33 33 34 36 37 41 51 61 66 71 69 48 45 44 45 42 37
65 72 67 66 65 64 61 59 54 44 39 39 39 36 34 33 35 34 39 43 50 59 65 72 65 49 46 45 43 43 38 37

GFSFLT1_prec_cthk_030.txt.gz
RH
51 54 56 62 67 68 71 78 83 91 80 86 73 75 73 74 70 69 69 64 61 58 58 57 57 56 52 48 44 39 35 32
49 49 54 62 66 69 77 80 89 82 74 68 65 64 64 66 62 56 54 55 57 58 57 56 55 52 48 43 40 35 33 33
50 53 59 62 68 76 80 81 75 72 69 60 60 59 63 64 63 63 63 65 64 62 61 59 53 50 47 40 33 31 30 31
50 54 58 66 72 77 73 73 72 66 60 64 66 68 68 69 67 69 67 66 65 62 56 51 48 42 36 35 34 31 33 30
54 60 63 65 62 67 75 67 62 62 66 70 70 68 70 70 70 71 70 68 64 59 51 40 35 35 35 36 36 36 35 33
62 60 58 59 56 56 61 62 64 65 65 66 65 69 72 72 70 72 69 65 54 46 41 38 37 39 43 41 38 38 38 40
59 54 58 57 56 58 58 59 58 59 61 65 69 71 71 66 67 64 59 54 53 54 49 44 43 42 43 42 45 47 49 47
54 55 54 55 58 61 60 59 61 64 66 66 65 66 64 62 61 57 54 55 56 54 51 44 45 48 46 46 50 53 57 55
52 54 57 59 60 60 58 59 63 65 62 58 64 60 63 66 58 56 52 53 51 45 39 42 41 49 51 52 51 52 59 53
52 55 59 59 59 57 58 62 63 62 58 65 61 66 68 59 53 48 51 48 44 42 43 43 43 48 49 51 50 53 54 50
53 58 59 57 56 57 61 63 61 59 62 67 72 67 62 55 52 51 47 43 39 38 37 38 40 41 47 51 49 54 56 56
50 55 56 56 58 61 64 63 62 67 72 74 66 66 59 56 51 47 44 40 39 37 35 34 39 44 48 51 54 57 51 60
51 53 54 55 59 64 64 63 68 71 71 64 68 59 58 52 47 45 43 44 40 38 38 41 40 45 48 50 50 56 60 68
50 53 54 57 62 66 64 66 74 79 64 68 62 58 53 46 48 47 48 43 38 38 43 41 40 42 42 45 53 61 70 73
49 52 55 59 62 65 61 70 77 70 63 61 59 56 48 50 50 50 45 41 40 40 41 34 35 41 47 54 60 67 75 67
47 51 54 59 63 62 66 74 78 63 61 60 58 50 51 51 53 48 45 42 40 43 39 36 38 45 52 58 65 65 50 47
44 48 52 59 61 63 72 75 63 60 61 61 50 51 52 54 52 47 44 41 45 43 42 41 42 48 48 52 49 46 46 43
41 46 54 60 62 68 71 64 63 65 65 56 54 52 56 54 49 47 44 43 42 42 45 44 47 51 48 46 47 44 46 46
43 50 58 64 65 67 69 66 65 69 64 58 55 61 57 52 48 45 45 39 39 45 46 47 49 48 46 47 44 42 46 47

GFSFLT1_prec_cthk_033.txt.gz
RH
52 51 54 60 66 68 71 73 74 79 83 72 80 71 69 73 73 72 68 62 57 58 57 55 54 56 54 52 46 41 37 35
54 54 57 65 67 70 74 74 75 81 78 73 70 72 72 66 62 58 57 57 58 59 60 59 61 62 56 50 45 39 38 37
58 59 63 65 67 69 71 76 79 78 72 71 70 63 62 64 59 58 60 61 63 63 64 67 65 60 52 47 42 42 39 37
54 58 61 64 67 72 76 82 75 79 75 65 64 67 63 60 62 65 67 66 66 65 66 65 58 50 47 47 46 44 42 42
55 59 58 64 68 71 71 68 68 66 62 63 62 63 68 68 68 68 67 66 68 67 61 53 49 50 50 49 52 51 50 48
51 55 61 68 64 66 69 66 63 58 56 60 61 65 68 68 69 69 69 71 67 60 55 55 56 53 55 56 57 55 50 47
52 56 60 58 61 64 66 57 58 59 57 58 62 65 65 67 71 66 66 67 60 60 61 58 54 52 58 56 55 49 53 51
47 50 49 54 59 62 61 57 57 59 58 60 62 61 59 63 66 66 71 60 58 57 53 51 50 49 48 53 50 48 51 54
45 47 50 52 57 58 56 57 58 59 60 62 60 59 63 68 70 67 57 60 60 53 48 49 49 48 49 49 50 51 54 54
46 48 51 53 56 58 59 57 58 60 61 61 61 61 71 83 65 58 61 56 50 45 47 48 46 42 41 47 47 53 53 65
45 47 51 54 57 59 58 57 58 60 60 61 63 70 77 68 56 58 54 48 47 45 47 46 44 44 42 48 50 48 64 61
45 46 49 52 55 57 57 57 59 62 63 64 70 82 77 63 58 56 49 47 47 49 49 48 48 48 50 44 49 54 54 58
42 45 49 52 55 56 56 57 61 65 68 65 75 81 65 55 56 51 51 51 51 52 51 51 50 48 43 41 45 46 49 53
40 44 47 52 54 57 57 60 63 64 71 67 68 73 65 56 53 54 55 57 56 54 54 52 54 46 40 42 43 47 54 59
42 46 48 53 54 56 58 61 65 69 68 69 76 70 61 56 57 60 61 61 58 57 54 60 47 39 41 43 49 56 55 58
38 44 49 52 53 56 59 61 66 73 74 75 69 63 59 56 62 64 67 62 58 56 59 54 45 43 42 40 47 54 48 48
38 45 48 50 52 55 58 62 68 75 74 70 65 63 56 62 65 72 65 60 56 54 59 57 47 44 39 40 42 43 40 44
40 42 46 50 51 53 58 68 71 70 72 70 72 65 62 70 74 67 62 59 54 55 61 54 47 49 42 43 42 43 41 46
40 44 46 50 55 58 65 66 69 79 71 78 70 67 72 74 69 65 59 55 60 56 58 49 52 50 46 45 46 44 45 49

GFSFLT1_prec_cthk_036.txt.gz
RH
41 44 51 57 58 60 67 68 71 73 73 74 70 67 63 64 65 67 65 58 48 47 47 48 49 51 53 53 50 45 39 36
44 45 48 55 58 62 64 64 66 68 73 74 68 64 60 60 59 55 47 46 50 52 54 54 56 59 57 52 45 41 39 38
46 47 49 53 54 60 61 67 68 74 78 71 62 58 55 52 46 46 51 53 57 58 58 60 61 60 54 44 40 39 39 39
48 49 51 56 59 60 62 71 73 73 75 61 55 51 50 47 50 52 56 58 60 59 62 63 60 55 46 42 39 41 44 42
48 50 52 56 57 60 68 70 70 66 68 58 54 50 49 55 58 58 61 62 61 62 64 57 54 52 47 41 42 46 45 43
47 49 53 54 57 67 67 62 64 73 62 54 54 59 59 62 64 66 69 63 63 62 57 58 56 52 46 43 47 52 52 49
51 54 53 52 55 57 61 73 67 62 55 57 58 57 60 62 63 62 67 67 71 63 60 57 52 46 40 44 49 49 51 48
48 50 53 58 58 60 62 62 59 58 56 54 55 58 61 62 59 63 67 78 74 55 54 50 42 39 41 46 47 49 52 51
50 51 55 55 53 57 58 57 57 56 55 53 55 56 59 59 59 64 80 74 58 50 48 44 43 42 45 46 47 48 52 49
48 47 46 48 51 54 56 54 55 54 54 54 55 59 59 59 66 74 76 65 59 46 44 43 43 47 45 44 47 47 49 51
42 41 42 44 48 49 52 54 57 56 55 56 58 61 64 65 68 72 70 63 53 44 44 46 50 49 51 50 50 45 46 47
37 38 41 44 48 50 52 57 62 59 56 57 60 64 67 72 66 67 70 70 57 45 48 52 53 56 54 51 48 47 47 48
37 38 41 43 48 51 53 59 61 60 61 59 64 71 74 76 64 75 74 62 48 49 53 57 58 59 54 53 45 45 45 45
39 43 43 45 47 51 55 58 59 60 60 63 68 73 74 86 70 78 70 53 55 59 59 59 60 62 58 55 49 47 47 46
41 48 52 52 50 53 57 59 57 59 60 68 70 71 84 77 76 72 54 61 68 62 62 64 64 61 55 52 51 55 50 47
45 50 55 58 54 57 59 57 55 56 62 69 74 75 83 74 71 65 63 74 69 68 68 63 67 58 54 54 54 46 42 40
45 43 46 52 57 57 56 57 56 59 70 74 79 79 73 80 75 60 74 79 78 66 63 62 64 59 51 52 48 46 38 35
40 44 45 49 56 58 59 60 61 63 71 79 76 76 85 78 67 77 80 73 69 66 64 63 63 62 51 51 47 46 36 39
35 40 45 49 57 62 63 63 66 73 77 78 81 87 84 74 79 80 76 73 69 66 62 56 63 62 50 50 52 53 42 44

GFSFLT1_prec_cthk_039.txt.gz
RH
38 38 37 43 51 51 52 55 59 64 62 62 71 66 69 65 60 58 59 60 57 48 42 42 44 47 48 49 50 45 39 34
40 40 39 43 48 53 56 57 59 69 70 77 75 66 56 55 55 55 50 46 43 44 46 50 52 52 54 53 48 42 36 35
37 40 43 42 46 50 54 66 71 73 73 71 70 61 55 53 51 44 42 45 49 51 53 52 54 57 56 51 44 39 37 34
37 39 42 44 47 51 54 63 73 73 69 70 69 56 49 46 42 42 47 51 51 53 55 55 56 55 51 48 44 38 36 37
44 46 46 46 49 55 58 65 68 67 69 71 57 51 44 42 45 48 53 55 56 58 57 61 61 55 49 48 44 39 38 41
42 45 49 50 50 57 57 61 60 64 64 58 57 49 48 48 50 51 53 56 57 56 61 67 63 55 49 44 42 39 43 48
48 52 46 50 52 53 58 57 57 58 61 60 57 54 51 50 53 58 62 64 63 62 66 68 62 56 47 42 36 41 44 44
53 55 52 51 50 50 53 54 57 63 63 62 57 54 54 55 60 63 64 62 60 66 75 70 67 57 42 36 42 46 45 45
51 48 50 46 44 45 51 57 58 57 59 60 59 56 54 58 61 63 66 66 69 68 68 66 59 56 50 39 45 47 46 48
39 41 40 43 48 51 52 55 57 57 57 58 58 58 61 66 67 68 63 77 79 66 56 61 64 48 40 46 52 50 50 54
37 40 42 45 50 55 54 56 57 56 56 59 63 62 65 70 75 77 80 72 86 78 62 65 58 48 52 57 53 55 61 61
35 37 38 37 38 41 48 55 57 59 59 63 64 66 69 78 77 73 73 82 88 73 59 60 52 51 61 58 58 54 55 51
36 36 35 34 36 38 43 52 59 61 64 65 66 67 72 76 72 75 79 84 86 72 50 60 64 64 66 59 63 59 53 52
38 38 37 38 42 49 57 56 59 65 66 66 67 69 72 72 74 83 75 80 72 57 70 72 71 66 63 65 65 58 56 54
40 42 45 52 59 71 79 76 70 72 63 62 64 66 72 73 76 78 85 78 70 76 76 80 67 67 70 65 62 58 57 55
40 45 58 63 67 68 73 78 78 66 61 61 64 70 73 76 82 82 82 81 75 83 79 72 70 72 73 66 64 65 58 52
34 45 53 60 61 63 69 70 67 66 65 66 69 72 81 86 82 90 85 85 87 82 80 75 75 75 73 71 67 60 60 52
34 42 47 49 50 49 58 69 69 72 77 77 79 81 82 84 93 91 89 90 87 80 81 81 75 73 68 69 65 60 60 52
33 34 37 41 46 56 65 70 73 75 79 80 84 88 93 92 92 91 92 89 87 83 82 79 75 67 66 64 64 61 57 58

GFSFLT1_prec_cthk_042.txt.gz
RH
45 46 46 48 54 44 49 48 49 54 57 61 63 64 57 52 49 49 47 48 50 53 52 45 43 45 48 50 50 48 45 44
44 46 50 49 48 44 41 44 47 53 63 63 63 64 58 49 47 45 47 47 48 45 44 45 48 52 53 51 53 47 45 41
45 44 45 44 45 47 45 48 52 60 69 65 64 64 58 52 48 49 49 46 42 44 48 50 53 55 55 55 49 46 45 39
41 41 40 39 42 47 50 59 63 68 67 64 71 66 62 55 50 47 47 45 47 49 52 54 57 59 62 60 52 47 47 41
44 46 45 41 42 45 51 63 64 65 63 67 66 65 61 54 51 47 46 46 50 55 56 58 59 64 67 64 61 59 59 49
42 45 45 46 46 50 58 59 61 61 62 64 67 65 58 54 46 46 48 52 56 59 60 61 61 66 67 65 66 64 59 50
49 46 49 51 52 53 63 62 61 63 64 65 65 61 57 49 48 50 55 58 60 60 63 68 72 69 69 64 60 52 44 43
48 48 50 54 52 59 60 58 60 63 62 62 62 60 55 53 55 58 61 64 67 77 84 81 75 74 76 68 53 48 50 52
46 48 53 55 55 61 57 56 58 60 59 65 60 57 62 67 68 68 76 83 84 82 85 87 81 79 69 64 52 49 53 54
42 46 50 52 48 53 50 50 53 57 65 67 63 71 73 72 77 83 85 88 79 96 82 73 82 75 72 65 53 54 58 59
39 41 40 44 45 47 47 49 55 60 59 61 68 76 79 81 86 88 89 83 82 78 82 86 78 70 67 54 59 64 63 62
28 28 32 36 40 44 46 48 54 61 63 72 73 76 84 86 85 84 82 71 86 80 85 77 65 62 54 64 70 64 63 63
28 29 30 31 35 39 42 46 50 59 68 69 73 73 73 75 69 71 81 91 77 78 77 70 71 68 75 73 67 72 71 68
36 39 38 36 39 48 50 55 68 74 80 86 84 78 75 71 73 75 69 74 78 80 76 76 79 76 72 71 71 73 74 74
41 44 44 43 53 59 62 75 78 81 80 81 81 81 78 71 69 71 74 77 79 81 84 85 80 80 80 78 83 79 81 76
42 46 43 49 60 60 65 71 76 82 79 75 81 83 81 77 78 75 80 85 87 86 86 84 88 82 82 84 80 79 81 78
40 38 41 45 51 60 68 77 82 76 72 80 83 79 77 78 79 85 91 93 91 92 91 87 84 84 84 82 81 76 78 78
33 33 34 39 47 52 62 58 65 74 81 77 78 78 78 86 91 93 92 93 92 91 86 84 80 82 78 76 72 72 68 66
33 31 32 37 41 45 51 60 69 74 74 75 79 83 87 90 91 95 96 95 91 82 80 76 71 66 63 64 60 59 58 54

GFSFLT1_prec_cthk_045.txt.gz
RH
46 46 48 54 52 50 53 49 44 51 56 64 66 72 70 61 52 46 47 53 51 50 52 57 49 42 42 43 48 47 40 38
49 47 49 51 51 47 47 46 47 56 62 71 70 65 65 61 53 50 51 53 48 49 51 42 39 41 45 49 51 48 44 45
48 46 48 47 46 48 45 44 49 60 65 72 65 65 68 63 60 54 52 50 46 45 41 41 44 47 50 52 53 54 53 53
47 45 45 45 46 49 48 49 59 60 65 67 67 71 67 65 61 55 49 45 47 45 44 47 50 54 55 56 60 63 60 59
49 50 52 49 48 50 51 56 57 62 66 67 68 70 75 76 65 58 51 51 47 47 49 53 60 62 65 75 76 73 67 65
46 45 47 49 57 58 55 59 66 65 63 65 68 70 67 64 62 57 52 49 49 53 57 65 71 77 77 84 86 80 73 72
51 56 56 54 57 60 60 64 70 65 63 62 63 67 65 71 60 53 51 54 57 64 76 82 82 85 91 91 71 66 71 63
52 52 52 54 56 59 62 64 66 63 57 60 61 66 65 66 63 59 62 70 75 82 86 89 90 77 91 87 75 76 65 68
45 50 45 49 56 63 63 67 69 67 56 56 62 66 74 66 70 75 85 93 86 87 86 89 96 89 90 81 80 74 72 62
37 42 46 49 52 59 60 63 58 57 57 60 61 68 73 73 81 86 95 91 89 97 87 89 90 92 94 75 73 65 56 58
34 38 41 44 50 55 52 52 54 55 55 60 60 66 70 82 88 94 91 87 96 75 72 86 97 84 71 71 62 62 68 73
28 28 30 33 35 38 40 44 44 49 53 57 64 68 78 85 85 79 75 80 74 82 91 77 75 74 75 74 75 80 80 76
24 26 30 31 31 33 35 44 50 57 67 71 74 82 85 85 85 86 88 87 85 81 81 82 82 85 87 83 83 77 73 74
34 35 38 39 39 41 55 63 66 68 76 77 82 84 85 83 86 85 92 84 86 90 85 86 89 90 89 82 78 76 76 76
35 40 45 48 47 54 56 64 72 80 75 81 86 86 81 84 90 89 84 83 83 88 89 92 94 92 88 87 83 80 77 79
38 42 44 45 48 51 61 68 75 65 69 85 86 80 84 88 87 87 89 79 85 88 93 92 94 95 87 82 78 75 71 63
40 43 45 45 45 46 52 58 56 62 77 78 81 84 86 82 79 80 84 89 95 93 93 96 94 85 78 72 58 51 44 44
38 37 36 36 38 42 46 49 51 59 66 72 74 78 79 80 83 88 90 91 96 98 93 81 63 58 49 36 30 32 36 39
39 39 38 37 37 39 42 47 52 60 68 75 75 75 78 83 87 91 97 98 92 83 72 49 39 29 25 26 30 34 37 41

GFSFLT1_prec_cthk_048.txt.gz
RH
47 51 53 52 53 53 51 45 44 45 46 50 57 64 68 70 66 56 52 50 51 52 51 53 56 55 44 44 49 50 46 42
52 50 49 49 49 48 45 44 45 47 49 57 65 65 73 77 66 62 54 51 51 51 50 53 54 46 43 48 52 47 47 45
50 50 48 45 45 45 43 45 49 55 61 64 67 69 69 75 69 66 59 55 54 53 54 53 46 44 47 53 50 53 57 63
42 43 45 45 47 46 46 45 52 58 59 65 62 64 75 74 74 73 72 61 56 54 53 45 46 47 51 55 62 66 71 73
48 49 53 53 53 51 50 52 55 58 60 60 58 64 71 73 80 75 63 62 56 53 49 49 53 59 66 71 75 80 76 81
47 48 51 55 57 56 59 58 59 63 63 60 59 66 78 79 82 75 76 69 63 59 58 63 67 69 75 80 85 86 94 90
46 49 53 59 61 58 63 66 63 68 70 56 56 64 71 75 82 81 76 69 67 66 70 75 77 81 89 85 86 95 85 80
46 50 57 60 57 62 65 66 66 65 68 64 57 67 73 78 79 82 75 71 72 75 83 90 88 92 93 88 82 81 86 82
40 49 51 53 56 63 71 68 65 73 73 69 71 67 78 82 82 87 79 81 83 85 89 94 92 84 78 85 87 78 71 71
30 39 45 47 49 52 61 68 65 61 57 61 62 71 76 81 84 89 85 85 85 95 90 86 76 80 89 92 80 73 70 69
28 31 32 38 40 41 44 46 52 51 53 57 63 66 73 76 78 78 85 89 83 83 81 83 88 97 89 81 78 76 76 80
25 26 27 27 30 35 38 39 42 47 59 65 68 71 74 77 85 87 88 87 88 91 93 94 87 87 86 88 83 87 81 78
23 22 24 25 29 33 37 43 55 68 71 72 78 84 88 88 86 85 88 92 91 90 95 89 86 86 92 91 93 84 82 80
39 37 37 38 39 45 49 59 62 69 75 80 83 83 85 86 83 85 87 90 90 90 86 96 92 94 97 96 89 87 78 71
33 36 39 42 48 53 63 60 61 68 74 81 81 76 87 85 85 84 87 84 92 87 89 89 95 94 96 94 86 74 65 48
35 36 43 48 49 49 50 52 54 56 55 58 62 75 87 81 78 76 83 79 85 84 86 92 96 97 93 79 66 56 43 29
41 42 44 45 45 44 46 47 50 53 56 55 58 66 70 72 74 77 79 77 87 90 92 95 95 88 72 60 51 37 25 25
40 39 38 37 35 36 38 40 42 44 45 50 62 68 73 74 74 72 80 88 94 96 98 90 74 59 40 32 24 22 23 27
40 39 38 37 37 36 36 38 42 47 57 66 69 71 71 74 81 88 93 97 98 97 82 63 41 27 22 21 21 23 25 29

GFSFLT1_prec_cthk_051.txt.gz
RH
44 47 49 54 58 58 56 56 60 59 54 51 49 53 58 63 73 73 61 56 54 51 55 54 53 54 53 49 42 42 42 41
48 52 55 53 55 55 53 52 50 51 49 51 54 55 59 68 84 79 67 58 54 52 54 53 52 53 50 46 43 45 46 52
48 49 50 50 49 48 49 51 54 53 55 55 59 61 64 73 89 74 79 70 62 57 56 53 53 52 51 49 53 53 58 61
45 46 47 48 47 46 47 47 50 58 61 61 63 65 67 75 77 83 82 77 70 65 64 61 59 57 54 60 62 63 70 72
41 41 43 45 45 48 48 47 48 57 62 61 64 64 65 72 79 85 90 84 73 73 74 68 65 64 64 70 71 75 80 84
45 47 48 49 50 51 51 54 57 58 62 66 66 63 63 72 87 90 84 85 82 82 75 69 73 71 71 79 82 87 91 93
47 50 54 55 55 55 57 56 64 67 68 72 74 62 57 64 73 84 87 87 86 82 77 79 80 78 80 88 94 96 91 88
52 53 53 57 61 63 62 63 66 68 70 78 76 71 65 65 73 91 91 90 90 87 86 87 87 90 94 93 91 88 91 88
48 49 54 57 64 65 61 68 72 68 69 77 77 74 67 67 78 95 95 94 94 92 91 91 93 93 88 87 90 91 87 83
35 41 44 51 57 56 62 63 67 70 67 62 59 56 63 75 83 94 92 95 96 95 94 93 93 93 95 91 94 91 83 78
24 26 33 40 47 49 49 51 53 54 51 50 51 62 74 77 87 93 92 95 97 97 92 96 99 96 97 95 91 85 89 90
22 24 27 28 31 33 36 39 41 41 45 54 71 76 78 81 89 90 93 97 95 95 97 96 95 91 98 93 94 95 89 83
32 26 22 25 25 29 31 34 39 46 59 68 71 77 83 86 90 91 93 94 95 97 95 98 94 95 89 92 97 90 81 79
36 36 38 38 38 39 41 46 51 59 63 67 74 81 86 86 87 91 91 90 88 87 94 92 91 97 95 92 91 85 83 71
33 38 44 48 49 50 51 52 54 54 53 56 61 67 72 79 78 86 90 85 81 80 85 87 89 97 94 94 90 81 71 62
35 40 44 46 49 50 50 52 52 54 54 53 53 61 62 65 66 67 69 77 77 79 78 90 96 96 97 91 83 70 55 35
40 43 47 50 50 51 50 50 49 50 51 53 58 58 54 56 61 69 78 68 76 76 87 93 95 96 95 81 64 47 31 25
43 44 44 44 43 43 42 40 40 40 42 45 49 54 59 64 66 68 74 74 83 88 94 97 98 88 69 54 38 25 24 23
43 41 42 42 42 41 39 38 38 41 47 53 56 58 61 64 66 76 80 83 89 92 92 83 73 56 37 24 21 21 21 20

GFSFLT1_prec_cthk_054.txt.gz
RH
53 53 56 58 54 55 56 54 51 48 51 51 55 59 59 61 69 78 84 78 73 75 65 58 59 54 49 50 50 47 42 45
50 51 51 56 58 60 60 64 65 62 60 57 54 56 60 62 69 74 83 81 74 61 55 55 55 52 49 52 54 51 49 52
52 58 60 55 53 53 55 54 57 60 61 59 57 56 62 63 68 81 85 86 84 70 67 62 61 57 59 60 61 57 56 58
49 51 50 51 50 50 51 52 56 59 62 66 66 69 68 65 71 79 88 91 91 86 77 71 69 68 66 67 64 63 61 64
46 47 46 46 46 47 48 49 51 55 60 68 66 67 70 65 65 79 90 92 94 93 85 80 79 76 73 72 68 69 70 75
42 42 43 46 48 51 50 50 51 55 59 65 70 71 71 75 71 74 86 86 91 90 89 86 85 86 82 79 74 76 78 86
44 44 51 51 53 55 55 57 60 61 66 67 71 77 80 72 62 60 67 76 87 92 93 93 92 89 86 84 81 88 87 91
51 55 54 55 55 59 62 65 71 71 75 77 80 83 84 80 77 70 69 74 83 91 93 97 94 91 90 89 89 92 92 88
48 57 62 60 60 65 65 70 72 76 79 77 78 85 84 81 77 73 73 84 81 99 94 96 97 97 95 88 89 92 97 91
45 51 55 60 64 66 69 73 76 77 80 85 81 76 78 78 68 71 79 88 92 98 98 96 96 95 93 91 97 97 97 90
39 36 43 52 58 63 68 70 69 71 73 73 67 60 58 62 70 77 84 92 96 98 96 97 96 94 96 97 93 92 95 96
33 30 30 37 42 49 57 58 57 54 53 52 53 55 65 75 79 80 85 90 95 98 96 95 98 94 90 95 97 96 93 98
37 34 33 37 37 39 43 44 43 45 46 46 53 65 68 73 80 87 90 94 94 94 92 95 93 90 87 92 88 94 92 96
38 40 40 38 36 37 36 37 41 47 51 53 52 54 55 61 69 83 84 88 82 83 88 92 81 79 87 87 88 94 97 95
32 33 35 39 44 49 51 50 51 51 49 50 53 54 53 52 55 63 69 75 79 74 75 79 81 82 87 87 94 98 94 90
37 38 41 45 49 49 50 53 52 51 52 54 53 54 53 55 60 62 64 64 66 68 79 80 80 82 88 94 96 92 87 75
42 41 46 51 54 57 57 57 59 57 58 55 54 55 55 57 56 54 59 61 67 71 79 78 83 89 92 95 88 75 60 47
44 44 49 53 53 53 55 54 53 49 46 45 44 44 46 50 55 58 63 62 66 76 80 86 86 89 84 73 57 41 35 33
41 43 45 48 47 49 49 48 47 44 42 42 47 51 55 57 55 58 59 65 72 76 79 78 72 71 59 42 32 28 30 28

GFSFLT1_prec_cthk_057.txt.gz
RH
55 64 58 57 52 50 54 55 65 74 73 63 59 60 60 63 67 70 81 85 81 80 81 79 69 60 54 51 49 50 53 49
59 56 59 58 57 55 52 53 54 59 61 64 64 61 60 63 64 68 74 81 82 78 71 64 57 55 57 54 51 60 61 57
46 51 55 58 58 56 58 56 55 58 63 59 61 59 59 61 65 70 73 78 80 76 69 76 68 67 68 66 63 66 66 65
48 53 56 55 55 56 54 57 58 60 64 64 66 67 66 70 70 70 65 83 84 91 91 91 86 83 76 76 74 74 75 70
41 44 47 48 48 50 51 53 58 61 64 68 71 71 69 71 71 69 68 70 83 89 93 98 97 90 82 84 87 84 83 77
44 39 40 44 46 46 48 51 56 59 62 64 68 70 71 74 76 77 70 70 80 82 83 92 98 97 94 94 94 90 88 81
42 46 48 44 46 51 53 55 56 60 64 68 68 75 72 74 77 79 71 68 68 78 88 90 97 96 98 97 96 91 88 86
53 52 53 53 49 52 55 57 60 66 72 70 75 78 80 79 86 87 81 84 81 77 84 91 99 97 99 98 96 97 94 91
47 53 56 59 62 63 62 68 70 73 75 84 90 91 88 83 78 79 82 80 78 79 87 92 88 96 98 97 98 97 93 94
50 54 53 55 64 68 69 72 77 78 78 81 79 80 87 77 71 72 74 79 84 86 89 96 96 94 98 98 97 97 96 96
47 50 53 53 57 63 68 74 79 83 79 79 77 78 76 75 68 65 72 79 83 87 91 93 95 97 97 96 97 98 97 95
48 49 56 61 59 63 62 66 72 74 75 71 68 67 63 63 60 67 76 77 79 86 93 94 97 94 86 94 98 91 91 86
43 37 34 42 50 60 63 63 66 70 71 70 63 63 59 63 67 65 65 66 69 74 81 96 86 80 86 86 78 84 82 86
40 43 45 43 45 51 55 57 56 60 62 57 56 58 63 59 59 61 60 60 62 69 72 74 76 72 66 77 77 74 74 79
32 32 35 42 46 49 52 53 55 57 54 56 60 59 57 58 59 59 56 57 62 68 69 67 68 71 75 75 80 78 82 87
42 42 41 39 43 46 43 44 46 49 54 58 58 60 63 62 58 57 63 62 66 64 63 67 69 71 71 73 80 86 86 84
44 51 55 48 47 48 50 51 56 62 64 67 66 67 62 58 56 53 55 57 58 58 61 66 68 70 77 80 84 80 70 61
39 46 50 52 51 55 61 64 62 65 63 63 57 52 48 45 44 48 52 55 56 58 60 65 71 72 72 66 60 52 42 36
37 42 47 50 50 52 56 57 59 58 54 52 50 47 44 45 49 51 50 51 55 58 62 63 62 62 54 46 38 33 31 30

GFSFLT1_prec_cthk_060.txt.gz
RH
57 54 49 48 50 55 60 66 71 75 75 76 80 82 69 65 68 71 70 65 59 66 76 80 82 75 61 56 55 53 52 54
60 56 51 49 50 48 48 52 55 56 58 58 61 70 58 55 60 61 64 75 81 84 81 82 75 63 59 59 62 62 64 62
46 49 54 49 45 48 48 47 48 56 57 53 58 54 51 50 54 61 66 69 79 85 84 84 75 77 74 68 75 77 76 72
44 46 47 46 46 46 46 43 42 45 52 53 54 56 56 56 58 60 61 67 80 83 81 80 83 88 92 89 87 84 85 83
39 42 46 45 44 44 42 42 44 46 53 56 53 56 61 63 63 64 60 58 61 68 80 83 87 88 89 92 92 94 91 88
42 40 41 44 44 43 43 45 48 52 50 59 64 67 67 65 66 67 68 66 62 61 69 68 80 82 86 92 97 96 96 92
37 41 44 47 48 45 46 49 51 54 58 65 72 78 76 74 74 75 80 82 74 69 77 78 78 79 88 94 98 97 96 98
42 46 46 49 51 51 52 51 53 54 63 73 80 77 77 81 83 83 91 79 75 74 77 79 80 86 92 95 98 98 98 98
49 49 51 51 50 53 56 57 57 60 64 74 79 77 72 85 87 83 76 77 77 75 82 84 86 91 96 94 93 94 98 97
50 54 57 57 54 50 51 57 59 63 67 75 76 78 63 70 73 83 82 78 72 75 77 78 84 89 92 92 91 93 96 97
46 55 60 58 55 52 52 56 60 67 68 70 74 75 81 66 71 91 82 70 72 76 79 76 75 77 82 89 88 86 87 84
42 49 58 63 66 65 55 56 65 67 69 72 72 74 77 89 78 64 66 73 68 67 65 63 66 64 76 93 98 90 82 73
36 36 47 62 65 64 62 58 62 63 76 74 83 84 80 75 69 66 72 65 62 61 63 61 60 63 69 73 73 75 68 71
33 34 36 40 55 67 84 77 62 69 73 80 77 72 70 67 62 66 63 62 61 63 64 65 67 68 67 67 74 67 71 72
38 37 33 36 41 56 63 66 63 62 63 62 65 64 59 59 62 64 66 66 66 64 62 63 64 69 67 66 69 70 70 74
41 42 44 42 41 37 38 42 43 47 51 51 56 59 62 64 67 68 69 64 62 57 58 55 66 64 67 67 68 70 74 77
43 51 48 44 44 46 45 46 49 50 50 60 63 69 72 71 71 66 59 53 49 52 54 54 58 60 64 66 71 71 74 62
41 52 61 58 56 50 48 47 50 56 62 67 68 67 66 65 57 50 46 43 45 49 50 53 56 60 61 64 61 54 44 37
31 39 48 50 54 53 53 55 59 63 64 64 61 63 60 55 51 46 43 44 45 48 51 52 54 55 53 50 44 40 39 37

GFSFLT1_prec_cthk_063.txt.gz
RH
56 51 50 47 51 57 63 73 79 81 81 82 83 80 79 76 75 76 75 72 67 64 65 68 74 78 80 69 56 56 55 53
57 47 45 43 43 45 46 51 59 61 65 68 64 61 63 66 69 69 68 68 70 67 62 72 79 83 69 62 60 62 67 72
43 45 40 39 37 41 42 43 42 44 45 47 49 50 51 53 54 55 61 66 72 73 80 81 82 81 79 75 73 72 79 86
40 42 38 37 36 34 32 35 38 41 44 47 52 58 56 54 52 55 55 58 60 69 78 86 88 89 85 85 86 87 89 92
40 35 37 34 32 32 32 34 36 42 45 45 47 49 52 50 49 52 56 56 57 59 65 77 85 80 83 85 85 86 90 90
37 33 38 37 33 32 34 36 37 38 40 44 48 47 45 44 50 56 61 62 59 60 64 70 77 80 78 78 87 91 91 98
38 35 37 39 41 39 38 38 40 40 44 50 57 62 63 66 69 67 68 76 79 82 78 75 76 80 83 87 91 93 95 95
43 40 38 40 43 44 46 45 44 48 52 52 55 61 67 72 78 75 72 70 76 80 86 89 88 88 83 86 91 97 94 94
43 41 41 37 40 44 46 46 45 46 50 54 56 67 71 74 73 76 73 73 74 78 84 87 89 84 79 79 80 85 86 89
42 40 45 49 49 41 39 41 43 47 50 54 58 66 68 72 64 68 78 79 86 81 78 78 74 73 72 67 66 63 75 87
43 41 43 44 44 45 44 41 41 45 51 55 58 59 61 66 74 77 94 96 87 82 78 64 65 63 64 60 58 69 75 78
44 43 43 46 43 45 49 56 48 50 56 51 55 63 73 82 78 94 84 80 73 78 66 64 62 62 62 60 59 64 63 60
32 44 47 44 41 48 48 54 61 64 65 65 66 81 91 91 97 93 91 76 72 68 65 65 64 62 57 59 54 62 58 66
28 28 34 40 41 52 60 68 74 72 88 89 81 68 69 83 81 73 64 64 57 61 66 66 61 57 60 55 68 71 66 65
32 26 26 31 41 50 64 87 63 55 74 76 67 73 70 65 62 58 57 60 63 64 62 58 55 57 58 56 70 63 64 65
39 39 34 26 29 38 46 44 49 58 58 49 48 54 54 55 53 52 61 63 65 62 58 52 49 53 55 62 60 62 66 68
44 40 36 32 31 33 34 38 44 46 42 45 47 50 54 56 61 62 64 65 61 54 47 46 51 54 56 56 59 61 61 66
42 44 41 40 33 34 39 42 45 45 41 44 45 51 56 66 63 58 61 55 51 46 42 45 47 49 52 54 58 57 55 47
37 36 35 34 36 37 43 43 45 47 50 49 54 56 60 59 56 54 53 53 45 40 42 43 46 48 51 52 50 43 36 35

GFSFLT1_prec_cthk_066.txt.gz
RH
51 47 47 50 57 63 75 86 89 86 85 85 89 90 82 83 81 82 82 78 76 69 71 67 63 68 74 78 75 56 50 49
54 44 43 43 48 54 61 73 78 78 74 75 79 77 80 83 82 77 75 73 72 69 64 63 66 72 72 73 66 59 60 64
50 42 39 38 40 43 46 51 57 58 57 60 68 68 70 71 69 67 72 73 73 71 68 66 62 69 76 77 73 68 73 75
39 40 38 33 34 35 38 40 41 43 46 48 52 54 56 52 54 56 61 62 65 69 70 78 77 80 81 78 82 84 84 84
40 33 32 31 28 28 32 35 37 39 40 42 44 44 47 49 51 58 55 56 59 62 64 69 77 78 78 79 81 80 83 88
38 36 34 31 29 29 31 36 37 37 37 39 42 43 41 44 49 51 53 55 55 54 57 57 63 69 71 81 85 86 89 91
39 36 39 36 36 33 32 34 35 36 36 40 45 48 49 50 50 53 55 58 63 65 66 67 65 69 78 80 82 80 82 87
44 41 40 38 38 40 39 39 38 39 41 45 48 53 57 58 63 66 66 67 71 80 82 82 86 86 89 84 77 72 71 80
46 40 40 37 38 40 42 42 42 42 43 48 55 59 70 74 78 80 83 83 78 70 80 80 92 92 92 79 72 69 69 66
45 44 42 47 48 45 43 43 42 41 44 50 52 61 67 81 83 81 77 80 84 86 85 84 92 90 73 69 66 67 62 67
40 42 44 46 50 51 52 49 41 42 45 44 50 62 70 71 80 81 90 91 93 93 84 88 88 75 64 61 63 61 55 58
38 40 42 46 52 58 53 54 59 60 54 52 64 66 68 72 78 91 97 98 94 72 74 79 82 71 63 62 64 54 55 56
32 33 37 44 49 54 51 57 69 75 81 88 78 78 80 78 90 94 96 78 77 80 77 76 72 69 65 58 53 53 55 60
37 35 31 37 41 42 45 60 69 77 76 80 79 88 93 93 88 85 82 74 65 67 70 70 72 68 61 57 57 57 61 64
38 37 29 28 33 37 41 44 47 65 75 57 56 75 84 85 79 74 68 66 63 68 75 74 71 64 61 54 60 64 56 65
39 45 43 35 34 35 36 37 44 51 52 46 49 57 58 66 69 63 67 65 72 73 72 70 68 65 55 61 51 61 61 71
41 44 42 38 37 36 39 39 41 42 54 53 49 49 55 66 60 66 70 72 73 68 70 72 66 58 51 51 60 61 64 62
46 46 38 35 32 28 33 39 43 50 52 51 53 56 59 58 61 66 70 73 68 68 64 61 59 51 50 54 56 57 58 59
43 42 40 38 30 29 29 32 37 46 49 49 53 56 61 58 61 64 67 66 67 61 59 60 51 46 49 51 53 54 52 43

GFSFLT1_prec_cthk_069.txt.gz
RH
49 41 42 44 48 58 73 83 90 94 91 85 91 93 93 95 89 88 87 87 84 82 81 76 70 68 70 72 80 79 71 55
50 42 39 45 48 52 68 87 90 93 93 94 97 93 93 91 90 90 86 86 85 83 79 73 73 69 69 74 85 84 72 58
43 42 37 43 43 44 50 66 74 77 80 85 86 88 92 91 89 87 84 82 80 78 77 76 70 66 71 80 83 78 73 70
33 38 32 34 36 36 41 47 54 56 59 65 72 80 85 86 82 78 78 76 77 77 76 72 69 65 70 77 84 83 81 81
32 29 32 28 29 32 36 42 48 49 52 54 58 63 69 68 71 73 74 74 78 80 78 78 79 73 78 85 87 86 83 84
32 30 31 27 26 26 32 38 41 44 45 47 52 58 61 63 67 63 61 64 69 68 68 67 69 74 79 82 83 83 87 88
43 37 35 34 30 27 30 36 40 40 42 44 48 50 52 55 56 56 57 60 62 60 57 58 59 66 69 71 77 81 81 79
46 33 37 39 37 35 34 36 38 40 40 40 43 48 54 54 58 60 62 61 64 65 60 59 63 66 69 76 85 84 79 76
40 36 36 35 36 36 36 36 39 42 42 43 44 47 53 56 60 64 64 65 64 65 68 81 83 84 89 93 92 88 74 72
39 41 41 42 43 41 40 40 39 40 40 44 46 48 52 57 63 68 73 75 82 87 84 81 83 88 94 93 91 77 71 67
40 42 43 48 49 51 52 49 48 45 44 48 51 54 57 60 64 77 82 91 92 96 96 94 89 92 94 88 82 72 65 64
38 39 40 44 51 54 60 63 56 55 55 56 58 59 62 66 66 67 77 91 93 97 95 91 91 86 91 82 76 70 66 61
34 35 37 41 45 51 55 64 69 69 73 74 75 72 71 66 74 75 74 85 87 77 81 81 85 85 81 79 72 70 67 65
41 40 38 37 36 40 46 48 57 65 76 78 79 80 64 70 75 89 89 89 88 76 71 81 86 85 77 74 75 68 68 59
45 41 36 38 33 30 34 36 41 49 61 64 76 70 57 67 78 95 88 86 87 78 74 76 73 72 74 74 73 69 63 57
45 45 44 42 43 41 38 38 41 44 49 61 63 65 62 62 66 71 68 72 75 72 75 76 72 69 69 75 72 66 56 58
46 46 44 43 48 44 37 35 38 42 43 46 54 64 61 60 60 63 64 65 67 73 77 74 71 69 73 73 71 59 54 60
50 45 43 41 47 47 41 34 33 36 40 47 58 60 59 56 59 59 57 60 65 74 75 72 70 75 73 70 66 58 55 59
48 43 43 43 44 44 42 37 35 35 37 42 51 57 58 57 56 59 59 62 70 78 81 81 81 74 66 66 64 59 59 63

GFSFLT1_prec_cthk_072.txt.gz
RH
57 54 46 44 45 52 70 83 91 96 97 98 98 97 96 98 93 93 89 91 91 90 87 86 82 81 82 79 77 78 77 75
51 51 44 43 41 46 70 87 92 94 95 89 96 96 97 96 97 93 92 92 91 88 86 87 85 78 80 79 78 84 86 83
46 45 41 43 39 39 56 76 87 93 95 94 93 94 99 97 97 95 92 93 92 90 88 86 84 78 76 77 79 84 86 88
39 39 40 35 35 36 42 52 64 72 78 85 91 96 97 96 95 93 92 92 92 92 89 86 81 78 74 73 77 84 83 83
36 33 34 34 29 33 34 41 45 49 53 62 73 81 89 91 93 91 91 90 89 88 89 85 75 73 76 73 72 79 83 85
46 35 31 31 26 26 32 36 39 42 45 52 60 63 68 74 77 80 81 82 80 81 77 79 74 74 78 78 80 87 91 90
50 45 35 34 29 26 30 34 36 39 42 44 48 51 57 62 63 66 69 70 74 75 75 77 78 80 80 81 85 86 85 81
46 45 34 32 37 34 32 35 39 41 42 44 46 52 57 57 57 60 61 61 59 60 65 67 71 72 70 70 70 72 79 85
40 42 32 34 39 36 36 36 39 44 48 48 49 50 55 60 60 61 63 64 63 65 65 64 65 61 61 66 75 81 89 92
34 37 35 34 35 37 36 37 39 43 47 48 50 52 55 58 61 64 68 71 72 68 67 71 70 73 73 82 85 95 92 92
32 34 38 39 42 47 50 49 46 44 46 48 48 49 51 55 56 61 63 68 71 71 72 70 72 75 81 85 90 97 89 88
34 35 40 43 46 50 53 57 65 61 54 51 52 54 58 60 62 61 58 65 71 75 84 93 96 96 90 89 90 96 93 91
40 36 35 40 42 45 50 56 57 67 67 62 58 57 60 62 61 66 66 71 75 75 84 91 83 80 95 90 89 93 89 86
40 39 38 40 38 37 38 45 51 56 61 64 64 66 65 71 57 66 69 73 82 84 86 83 72 79 86 85 87 92 86 88
41 38 40 40 39 40 32 32 36 41 47 53 51 54 59 69 54 58 65 76 85 88 85 80 83 80 80 79 80 83 80 78
44 41 41 41 39 42 41 39 37 39 44 49 46 48 61 63 61 59 62 71 78 72 77 83 87 80 79 79 76 71 73 77
45 44 46 44 43 44 45 40 37 38 41 42 47 50 56 63 67 62 62 65 73 72 73 79 81 82 83 81 73 75 75 75
51 45 49 46 44 45 48 45 42 40 38 35 39 45 47 63 71 66 67 67 69 76 80 78 77 81 80 82 85 87 82 77
47 51 48 48 44 45 45 52 48 43 41 38 36 36 36 48 59 66 67 65 66 73 77 73 76 79 81 89 94 90 77 71

GFSFLT1_prec_cthk_075.txt.gz
RH
47 51 50 42 43 46 59 74 83 94 93 86 88 93 97 95 89 86 83 86 90 90 86 88 91 92 93 87 85 84 79 76
45 49 47 42 41 44 62 81 86 95 94 93 95 99 98 95 92 84 87 91 93 91 90 94 92 89 92 89 87 86 86 86
40 41 43 42 39 41 58 80 90 91 94 92 94 95 98 97 96 90 87 90 92 92 92 91 88 87 88 89 89 88 88 89
36 35 37 41 33 36 46 59 73 79 85 91 92 91 94 97 96 89 88 93 93 94 90 89 88 86 85 83 82 82 86 91
41 35 31 32 29 29 37 45 50 56 62 72 80 88 87 90 95 92 95 95 93 93 91 89 88 86 85 83 79 77 82 86
50 45 31 30 27 25 31 39 42 46 51 58 64 80 89 94 97 96 95 96 94 92 91 91 91 90 86 79 77 78 81 85
49 49 44 31 29 26 29 34 38 41 45 49 57 63 73 81 83 84 82 82 82 84 85 84 87 86 83 82 80 84 83 84
44 47 45 33 31 31 32 33 37 39 43 45 47 51 56 61 65 66 69 73 75 76 78 79 78 77 77 77 79 76 79 82
43 45 43 34 30 34 32 35 40 42 43 43 45 50 51 54 57 60 61 65 65 71 73 72 75 76 74 75 76 71 69 69
42 42 40 34 30 36 33 33 36 40 42 42 45 49 51 52 54 56 60 61 62 63 62 62 63 64 66 69 68 66 69 72
37 39 32 35 34 37 40 37 35 39 42 43 44 44 47 52 55 57 61 65 65 64 66 66 68 69 71 72 73 71 75 79
38 38 35 35 42 45 47 49 49 50 50 50 50 48 49 53 58 62 63 64 63 64 71 71 72 75 76 76 79 82 89 96
43 40 38 39 41 43 47 50 51 55 62 63 60 58 54 55 57 59 61 62 64 60 64 67 69 73 81 89 92 93 95 98
46 48 44 37 37 41 39 43 46 52 55 56 55 57 60 58 62 62 64 58 65 68 70 77 83 82 89 93 86 92 99 98
47 47 47 43 39 39 39 37 38 41 47 50 46 51 52 52 56 62 59 55 63 68 71 79 86 89 88 81 85 79 88 90
42 47 47 44 43 43 43 41 36 34 37 41 44 49 51 49 50 59 60 59 61 70 73 77 84 91 90 87 93 89 86 85
37 42 43 43 46 46 46 44 43 41 39 39 41 47 50 47 51 54 59 62 62 64 67 71 78 84 80 81 88 87 85 83
36 37 38 43 48 52 49 48 50 44 42 41 39 39 41 40 44 49 57 69 68 63 68 71 73 77 81 83 88 88 85 82
44 45 44 40 40 48 52 51 52 51 47 43 43 43 40 39 39 37 47 63 65 64 66 69 70 76 80 81 82 83 84 84

GFSFLT1_prec_cthk_081.txt.gz
RH
44 41 37 41 42 40 44 42 50 66 73 75 77 82 83 86 87 93 93 95 94 92 91 89 81 78 80 82 83 83 82 80
46 45 39 38 38 37 37 43 61 74 81 78 81 83 82 89 89 92 94 94 92 94 93 91 84 86 86 83 82 83 83 78
43 46 42 32 33 36 32 44 63 80 82 82 79 86 83 81 87 92 94 93 93 92 90 86 85 88 87 86 87 86 86 81
42 45 38 32 29 32 30 39 54 70 82 83 86 89 91 91 90 93 92 89 89 88 86 83 84 89 89 89 90 90 92 85
39 44 36 33 28 27 27 34 45 50 57 69 74 81 86 90 91 93 91 92 92 92 89 88 88 90 92 89 90 90 90 86
36 41 40 39 34 27 23 28 39 46 51 55 60 67 73 84 86 92 89 90 90 88 81 85 90 91 90 89 87 87 86 88
35 41 43 41 40 29 26 29 34 40 45 49 53 60 67 73 86 84 82 78 84 85 84 91 92 92 90 88 88 88 86 84
35 40 44 44 41 31 27 30 33 35 41 46 51 55 62 67 77 84 81 80 83 88 92 93 93 93 93 90 87 90 85 83
28 38 44 45 41 33 25 29 34 35 39 43 49 53 55 62 64 66 66 66 72 79 83 83 83 85 85 85 86 87 84 85
29 35 42 44 44 36 26 25 31 35 37 41 44 49 52 53 55 58 56 57 61 68 71 73 77 80 82 82 85 87 84 87
32 37 41 42 44 40 29 25 28 31 33 36 39 44 50 53 53 55 55 57 58 61 63 63 64 69 71 74 78 81 83 86
36 40 43 45 45 42 33 28 27 32 33 34 36 41 47 55 59 59 62 68 67 68 65 61 61 64 67 71 72 75 76 78
38 41 44 48 47 47 36 33 29 31 35 36 38 41 46 47 48 55 62 64 63 65 66 63 64 68 70 71 74 77 78 78
45 44 44 47 48 49 42 37 39 38 38 41 42 42 43 45 45 48 55 61 62 63 66 66 68 66 70 71 72 77 76 75
50 51 51 49 51 52 54 51 50 49 47 48 46 46 48 47 47 47 51 53 55 55 57 64 63 64 64 69 74 70 71 78
52 52 55 57 54 55 55 57 54 51 51 51 50 54 55 53 49 49 49 49 51 53 55 59 63 61 63 69 71 72 71 71
53 51 51 55 60 58 58 55 54 56 52 49 50 49 51 51 53 54 52 50 53 56 53 55 59 58 57 63 68 71 69 69
53 55 54 50 49 54 58 56 56 54 54 54 54 50 48 49 55 56 55 56 57 55 57 59 58 61 59 61 70 72 74 76
48 51 54 57 52 49 53 60 59 58 56 54 55 55 53 53 53 53 54 56 56 59 54 56 59 60 63 70 74 75 75 74

GFSFLT1_prec_cthk_087.txt.gz
RH
39 37 32 33 37 37 34 33 34 30 42 57 58 57 57 54 52 53 57 62 66 80 89 92 89 83 85 82 80 75 68 67
35 38 36 34 37 38 34 31 32 29 42 61 63 62 65 62 61 64 63 68 80 89 96 97 92 89 87 84 79 75 74 80
33 39 37 34 36 38 29 29 29 31 38 56 66 63 64 66 66 72 79 80 92 98 96 94 94 94 89 87 82 81 81 82
32 38 37 35 35 35 29 26 25 31 38 44 58 66 72 70 68 74 83 91 93 97 97 97 98 96 93 86 82 78 81 80
32 38 39 35 35 38 34 26 22 29 37 41 44 46 57 69 75 79 87 95 94 95 95 95 94 96 97 91 83 78 80 82
33 37 35 33 34 37 34 30 23 29 36 39 41 45 51 58 70 81 88 94 95 97 96 96 94 93 92 88 81 81 82 82
31 35 33 32 35 36 36 32 24 30 35 38 41 44 47 53 62 75 88 92 94 92 89 88 88 87 88 84 81 82 83 84
36 36 35 33 32 35 37 36 25 29 33 37 40 44 46 51 59 70 83 87 91 88 86 85 82 81 79 79 79 80 83 87
38 37 38 32 31 36 37 37 27 28 32 36 39 44 46 49 55 65 74 80 81 83 83 82 82 82 80 78 78 84 87 93
42 39 40 37 31 34 37 37 34 26 30 34 39 41 44 47 51 55 58 62 66 66 68 75 74 74 76 77 84 85 88 92
43 42 40 35 31 35 38 39 36 28 27 31 32 37 41 50 54 55 55 59 57 56 56 59 62 66 68 72 76 81 82 86
49 48 45 38 37 36 38 38 38 37 27 28 31 32 36 43 50 57 57 56 58 60 61 63 61 58 61 65 65 69 71 78
58 57 49 40 41 40 41 43 42 40 35 27 31 34 36 38 42 49 53 52 53 56 62 61 63 64 65 64 61 63 72 72
51 58 56 50 48 46 47 49 48 45 40 33 32 36 38 39 43 44 47 50 52 52 57 62 59 58 60 62 66 69 71 72
57 55 65 62 52 49 46 48 50 50 47 43 39 41 44 46 46 47 49 53 53 52 52 54 55 55 53 54 58 63 66 69
63 62 57 62 78 70 56 52 51 52 54 51 50 51 52 52 51 53 56 56 56 57 57 56 56 54 52 54 58 59 63 68
63 63 66 63 59 61 70 69 62 58 60 60 59 57 57 57 59 60 61 60 57 56 56 58 57 58 57 58 61 63 64 64
56 58 60 62 64 65 65 68 70 68 65 65 66 64 59 59 61 63 61 60 61 56 57 65 66 64 62 64 66 69 68 69
53 53 55 57 56 61 66 64 66 72 77 73 71 71 68 68 67 61 62 66 65 64 61 61 65 67 67 69 72 72 70 67

GFSFLT1_prec_cthk_090.txt.gz
RH
27 34 37 35 34 33 36 34 30 33 31 36 56 63 60 60 52 57 67 67 76 73 72 73 82 81 69 63 62 66 64 67
29 32 36 36 38 34 37 33 27 28 28 36 56 62 62 60 60 52 51 73 75 88 67 93 91 84 79 72 63 67 68 71
31 32 37 36 36 38 36 30 25 25 27 35 49 63 63 66 62 62 62 63 71 72 73 79 95 88 85 81 75 78 77 75
31 33 36 36 37 40 36 32 25 23 24 35 41 55 65 68 67 68 67 73 78 85 87 93 95 91 90 91 87 86 82 82
31 34 36 35 36 40 37 37 29 23 23 34 39 43 46 60 70 74 77 86 94 95 98 99 95 93 94 93 91 88 81 78
33 34 34 35 37 38 38 39 31 22 23 32 37 41 44 48 57 67 82 87 92 94 95 99 96 96 96 95 91 87 80 82
32 34 36 37 38 39 38 38 32 23 22 32 36 41 43 49 52 63 77 86 94 95 95 96 96 97 96 95 94 90 86 80
35 37 38 40 38 38 38 39 36 24 22 31 35 40 43 48 54 62 75 86 94 95 96 97 97 98 97 96 94 92 85 84
35 37 37 37 35 39 37 39 37 29 20 29 35 39 42 46 53 61 71 84 88 92 92 92 92 93 94 93 90 87 84 84
39 41 41 41 44 42 37 40 38 35 19 26 33 37 39 44 49 57 64 70 78 84 85 83 82 83 84 88 87 85 83 82
40 42 45 45 46 45 39 41 41 36 25 24 30 33 37 44 48 50 56 61 63 63 62 64 67 69 71 73 74 73 77 79
46 46 49 49 49 43 40 45 45 41 34 24 27 30 33 39 45 49 52 57 60 62 62 64 64 61 62 63 63 67 68 71
50 51 53 54 50 45 46 48 47 45 39 32 25 29 31 35 40 47 50 50 52 53 60 63 64 66 64 62 61 62 62 64
56 58 63 64 57 53 52 51 49 50 48 40 29 29 33 36 38 42 47 49 51 54 54 57 60 61 62 66 68 66 65 65
61 66 71 74 68 62 64 62 58 56 55 50 42 32 34 41 43 45 46 49 52 56 59 57 59 58 57 59 59 59 61 62
66 68 68 66 70 74 68 67 66 61 59 58 56 54 48 44 44 49 52 53 56 59 62 62 64 62 60 58 59 60 60 62
71 68 68 69 65 68 73 72 75 77 72 57 62 62 62 63 61 56 55 56 58 61 60 61 60 61 61 62 66 66 67 66
75 73 71 69 68 69 65 65 68 73 77 77 76 71 74 75 77 75 69 68 68 64 62 61 57 55 60 65 70 73 72 70
75 73 67 62 64 64 66 64 63 66 74 79 82 85 81 79 78 75 73 71 71 69 64 63 64 60 60 64 72 77 74 71

GFSFLT1_prec_cthk_093.txt.gz
RH
30 33 31 33 40 42 36 34 37 35 29 27 27 37 58 63 62 62 60 73 75 78 87 84 80 77 65 72 70 71 69 66
32 32 30 34 39 43 41 36 38 32 26 24 28 36 57 61 60 61 67 64 73 84 75 75 98 94 72 71 67 66 68 69
31 31 31 34 37 40 42 40 37 31 25 23 27 33 53 60 60 59 58 63 82 74 79 98 87 82 80 83 73 69 70 74
34 32 31 36 37 38 40 40 39 34 26 23 28 33 42 51 63 60 57 56 56 64 95 83 84 80 91 85 80 79 77 82
35 32 31 37 36 38 41 42 40 37 27 23 26 31 34 38 50 60 65 64 63 68 82 91 99 78 88 85 83 81 81 77
34 32 34 37 37 38 42 42 41 39 29 23 25 30 34 37 42 49 57 67 74 81 86 94 90 94 96 92 87 85 82 80
34 34 37 37 40 41 42 42 40 39 30 22 25 30 32 36 41 48 56 64 77 87 94 95 96 98 96 95 94 90 93 93
37 37 38 38 40 40 43 41 39 40 32 22 26 31 33 35 39 50 58 66 77 86 87 93 96 97 98 96 94 94 96 93
39 37 39 37 40 43 43 41 38 39 36 23 27 33 34 35 40 48 56 69 79 89 87 88 88 88 92 95 96 96 91 92
38 39 39 40 41 39 41 42 42 40 38 25 26 34 35 36 39 48 53 63 73 81 84 86 86 86 87 86 90 91 92 92
40 42 42 42 48 51 51 54 46 43 40 29 24 30 34 36 41 44 51 57 63 71 73 73 73 76 78 80 84 87 88 87
47 48 47 48 53 55 55 54 48 45 44 39 24 27 30 33 38 44 47 52 58 62 63 64 65 69 72 71 75 81 82 80
51 55 54 53 58 61 63 58 50 51 50 45 37 25 29 30 33 40 46 50 51 56 62 65 68 69 65 64 64 68 74 74
61 61 62 63 66 68 66 63 58 59 57 54 48 37 30 31 34 38 43 48 50 52 54 58 59 63 62 65 64 65 66 68
73 72 72 74 76 79 79 71 70 67 60 60 58 52 36 34 36 38 42 45 47 52 54 56 56 57 58 58 60 60 62 63
83 82 79 80 82 83 81 77 74 73 68 65 69 65 55 49 48 48 49 50 53 56 59 60 61 59 57 59 58 58 58 59
85 83 78 77 80 77 83 79 75 75 75 75 75 75 69 64 65 64 63 61 59 58 59 61 63 62 63 66 66 64 62 61
88 84 77 71 74 76 74 75 72 70 76 77 79 81 80 81 81 81 82 82 82 78 76 72 68 66 66 66 68 71 74 70
91 86 81 73 68 69 70 69 69 71 72 75 78 82 83 83 85 86 87 87 87 87 85 85 83 81 82 81 78 75 72 72

GFSFLT1_prec_cthk_096.txt.gz
RH
28 27 26 32 34 35 38 44 36 36 38 33 28 29 30 38 58 66 65 63 61 72 76 83 95 90 89 88 78 74 72 67
27 28 27 31 34 35 35 42 41 38 35 30 26 26 31 37 59 62 61 64 67 73 77 84 92 83 82 82 77 80 85 78
30 30 29 32 35 35 36 42 41 40 36 32 25 25 30 37 50 60 61 69 64 76 74 80 90 96 89 89 74 69 72 79
31 33 33 34 36 34 35 42 40 42 39 35 25 26 30 35 39 45 64 59 71 70 71 78 95 94 92 93 90 76 81 81
34 36 35 36 37 36 37 41 42 44 41 38 25 25 28 32 36 40 51 59 59 67 84 90 84 87 96 93 83 80 87 87
36 36 39 42 40 39 39 42 44 44 42 39 26 26 29 33 37 41 45 50 54 59 66 72 82 89 96 96 88 85 87 89
38 39 43 42 39 42 41 43 45 44 42 39 27 25 29 33 36 39 44 48 54 60 67 72 79 97 95 98 90 89 89 88
41 41 42 41 38 40 42 43 45 44 41 40 27 25 30 32 35 39 47 53 59 66 76 86 92 94 94 96 93 89 93 91
41 41 40 39 39 41 42 42 45 43 42 41 28 25 31 33 35 39 48 54 62 74 83 88 91 97 96 97 97 94 96 95
43 42 40 40 43 42 41 42 45 45 43 41 31 25 30 32 36 40 48 54 60 67 76 80 84 84 88 91 94 95 95 96
45 41 41 44 47 45 44 43 43 47 47 42 35 27 30 33 37 40 46 52 58 64 65 69 70 71 73 80 83 86 91 91
46 46 50 51 50 51 50 49 54 61 58 48 41 28 30 33 36 40 46 49 53 58 60 60 60 62 65 68 72 75 81 82
59 58 58 61 57 56 60 61 62 66 60 52 45 35 30 32 35 38 45 50 52 54 55 59 62 66 66 68 70 72 72 74
71 67 66 64 63 63 65 70 70 70 68 59 55 51 37 32 33 36 41 48 52 55 56 58 60 62 63 66 68 68 68 70
79 74 72 71 71 70 73 75 78 82 78 66 66 62 56 40 35 35 37 43 48 53 56 58 60 62 64 65 66 67 64 66
86 83 81 80 80 80 81 84 85 86 84 81 78 73 69 62 47 43 42 41 44 49 53 55 59 61 65 68 70 69 67 65
85 86 86 89 85 92 89 87 85 84 85 85 84 79 76 73 74 62 60 59 57 57 56 56 58 60 64 68 70 71 72 70
88 86 88 88 91 94 94 87 87 82 83 85 84 82 80 82 81 76 73 74 75 75 78 79 77 74 72 71 73 75 75 74
96 96 92 87 87 88 87 85 84 80 79 82 83 83 83 83 83 83 83 81 82 82 82 84 86 88 88 89 89 91 90 86

GFSFLT1_prec_cthk_099.txt.gz
RH
25 25 25 26 26 29 35 38 40 43 39 35 34 30 29 28 30 42 64 68 68 69 68 70 84 99 96 96 97 98 94 80
22 22 24 25 26 27 33 38 39 43 41 36 31 30 27 28 32 44 62 72 70 69 72 71 75 88 96 96 97 95 93 88
24 22 23 24 26 28 33 37 41 43 43 38 34 31 24 28 33 40 49 64 70 73 73 81 80 86 88 95 97 94 92 82
25 25 24 25 26 29 33 37 40 43 46 41 37 34 24 27 32 38 43 59 73 72 82 76 91 85 88 88 91 88 83 78
24 27 25 25 29 32 36 40 40 42 46 41 38 36 21 25 30 36 41 48 57 78 66 80 75 91 91 93 93 90 81 78
23 27 26 28 32 36 40 42 41 41 46 44 42 39 23 27 31 36 40 45 50 53 73 85 76 84 95 94 98 96 90 83
25 29 29 33 35 40 43 42 41 42 48 45 42 39 23 27 31 35 39 46 50 54 56 71 71 89 90 94 95 96 94 89
30 34 35 37 37 40 45 41 41 43 48 46 43 41 24 29 32 35 37 46 52 58 62 65 69 78 86 92 94 98 97 95
37 37 37 39 40 45 46 42 42 44 49 47 46 44 26 30 33 35 39 48 53 62 71 80 83 84 84 91 96 97 97 93
42 37 37 40 44 47 46 43 45 46 51 48 48 45 28 30 34 36 41 49 57 64 73 82 84 84 85 97 96 96 96 97
51 47 44 44 49 51 49 48 50 49 51 51 50 45 31 32 36 37 41 48 54 58 65 67 70 73 79 83 87 89 90 95
63 54 51 52 52 56 55 55 52 52 55 53 53 46 33 32 37 38 41 46 51 56 59 59 60 61 63 66 69 73 73 84
75 67 64 63 62 59 60 54 55 56 53 62 65 50 36 32 37 38 40 44 48 50 54 56 56 59 62 61 61 63 67 68
83 78 74 70 67 65 64 61 60 62 67 71 69 58 46 35 36 38 38 41 45 49 51 53 55 56 59 60 61 62 64 65
91 84 79 75 74 72 68 70 70 74 76 77 73 66 58 49 40 38 39 39 42 46 50 52 54 57 59 61 63 64 65 65
96 90 86 83 81 77 74 74 77 79 82 86 85 83 73 69 54 44 41 39 40 44 48 50 54 56 58 61 64 66 68 68
98 97 95 89 86 83 82 81 85 88 88 93 92 92 87 83 77 68 60 54 48 46 46 47 50 52 56 63 68 68 68 70
96 97 95 95 91 91 91 88 90 90 92 93 91 90 89 87 85 84 83 80 75 73 72 70 70 74 77 77 75 74 74 73
98 94 94 93 93 94 92 93 97 94 95 96 96 92 90 90 87 86 86 86 86 85 82 80 83 82 81 83 86 90 91 89

GFSFLT1_prec_cthk_105.txt.gz
RH
23 20 21 25 28 30 35 33 32 33 37 41 43 45 45 42 36 29 27 28 32 42 52 63 65 64 66 70 88 98 98 97
29 29 25 25 27 32 34 33 30 33 31 37 41 44 44 42 34 28 28 33 35 44 55 64 64 61 69 78 96 99 98 98
29 31 32 30 28 28 32 32 34 33 30 35 42 44 47 47 38 33 24 29 34 43 53 61 64 61 67 81 96 98 99 99
30 32 31 33 33 30 31 33 34 33 35 37 43 44 49 50 41 36 24 29 37 47 52 58 66 64 70 83 96 98 98 98
25 27 28 30 32 33 30 31 33 36 36 36 41 41 50 51 44 37 29 30 35 43 47 54 70 71 76 83 90 97 98 96
35 34 31 26 28 31 30 32 31 35 33 36 42 44 50 56 48 41 28 31 35 39 45 54 62 76 82 87 89 93 98 96
44 42 35 27 26 26 31 33 32 34 32 35 44 45 51 58 51 43 28 30 35 39 43 53 61 72 78 86 90 87 89 92
49 48 47 37 28 25 28 33 33 34 32 37 46 47 55 60 53 44 30 31 34 37 46 52 56 70 82 86 88 93 95 92
51 52 54 48 37 29 29 33 37 36 36 44 52 55 59 62 54 44 30 34 34 37 45 52 59 63 77 77 89 89 98 96
52 54 53 50 48 32 31 39 44 44 43 52 55 59 62 63 56 43 29 37 34 38 46 54 61 69 76 85 87 89 94 99
55 56 57 52 45 44 46 48 48 49 49 54 58 62 65 64 61 42 32 33 34 39 47 55 66 75 77 78 81 82 93 95
58 62 64 57 53 56 52 54 55 51 56 59 63 65 68 66 66 43 35 34 36 40 46 53 60 64 69 69 68 72 84 92
65 68 73 64 61 65 58 60 58 59 60 66 68 72 71 69 68 47 37 38 39 40 44 51 55 60 60 60 62 65 70 72
67 71 78 74 66 64 66 66 66 66 67 71 70 74 76 75 71 52 39 39 41 43 44 48 51 50 50 53 57 58 61 63
74 74 84 81 74 70 70 71 72 74 75 76 74 77 79 80 76 53 50 46 42 44 46 46 47 50 52 51 52 53 54 56
76 80 87 90 83 80 79 79 80 81 80 78 78 84 85 85 78 57 57 57 48 46 48 50 50 51 53 54 54 54 55 56
85 87 86 97 92 88 86 85 84 83 79 82 84 86 87 87 79 66 64 63 55 51 50 53 55 56 52 54 57 59 60 62
87 98 92 98 99 96 91 91 90 90 88 91 88 87 89 89 85 80 74 69 65 62 57 56 55 52 55 56 59 61 65 70
91 98 97 97 99 99 96 95 96 95 94 94 95 93 94 94 94 92 89 85 84 75 70 63 61 59 63 68 71 77 80 82

GFSFLT1_prec_cthk_111.txt.gz
RH
28 26 24 23 22 22 22 29 31 33 38 42 39 33 30 30 32 33 31 31 34 30 26 29 31 35 42 50 58 64 64 64
31 30 27 25 24 20 21 29 34 38 41 43 38 34 31 31 31 34 35 35 34 32 27 27 30 33 40 52 55 65 68 65
34 32 31 28 26 25 22 24 29 37 41 42 39 36 35 34 33 35 37 38 37 37 31 27 30 34 42 48 56 62 67 68
34 34 34 32 30 28 25 25 31 42 47 44 46 44 40 41 35 36 38 39 39 42 36 28 30 37 42 48 53 64 68 70
39 36 34 35 37 36 35 30 33 41 45 42 41 39 38 35 37 40 42 42 40 46 41 28 31 36 40 46 49 59 67 75
42 41 38 37 36 36 38 47 50 39 37 35 32 35 37 35 39 44 45 43 43 48 47 31 30 33 37 45 49 58 71 83
45 44 41 39 39 40 40 39 46 55 51 39 30 33 35 34 38 44 45 44 45 50 51 35 29 32 36 45 51 56 71 81
49 46 42 40 40 42 42 41 35 42 52 45 29 31 35 33 38 42 44 43 44 51 53 37 32 31 37 47 53 58 71 82
54 47 43 39 40 39 39 42 35 33 39 42 35 34 39 36 37 40 42 44 46 58 56 39 32 33 39 50 56 61 72 82
57 52 46 46 49 48 46 39 34 32 34 37 40 37 42 44 43 39 43 47 51 60 57 41 34 36 43 54 57 63 78 85
67 58 52 57 57 55 53 52 43 38 34 37 41 39 47 55 57 49 47 50 56 61 58 41 35 39 47 56 69 76 82 89
59 56 53 52 56 58 56 54 52 47 45 45 46 44 51 59 65 55 54 54 60 70 59 42 38 40 47 55 67 74 81 87
60 58 55 53 56 64 65 66 69 66 67 60 63 64 62 66 73 62 56 62 66 74 62 45 41 40 48 53 61 66 68 71
61 57 57 61 63 67 70 72 78 74 71 78 74 71 73 80 80 62 59 69 71 79 64 51 45 44 48 51 58 61 63 64
69 65 62 63 61 67 71 74 73 72 71 74 76 75 77 88 79 73 73 75 77 81 69 59 51 48 52 53 54 56 57 59
77 73 68 66 65 67 73 79 84 81 86 72 75 74 80 84 81 75 85 80 84 80 80 74 62 55 52 53 52 54 57 58
77 75 73 72 72 72 74 80 84 84 79 77 77 74 75 78 78 89 86 84 86 84 83 80 72 66 61 55 54 55 56 57
83 82 80 80 80 81 80 84 87 89 88 84 82 81 85 90 90 87 95 91 89 87 87 88 75 71 72 69 61 58 57 57
86 87 87 87 86 89 87 90 95 97 96 93 91 91 89 92 94 97 94 95 94 93 90 89 88 74 76 77 72 71 68 66

GFSFLT1_prec_cthk_114.txt.gz
RH
34 33 32 29 25 24 25 26 26 30 37 37 40 42 41 36 31 30 30 31 31 32 32 32 30 31 33 36 39 43 48 63
39 36 35 33 29 26 24 23 23 29 34 43 43 41 42 42 35 33 33 33 33 33 34 33 32 30 32 36 40 45 53 59
41 38 36 34 33 29 28 26 23 24 30 37 47 48 48 44 41 35 35 36 36 35 35 36 34 32 33 36 40 47 52 58
46 41 38 37 34 32 29 28 24 23 26 39 49 55 66 61 46 38 35 38 40 38 38 41 38 34 32 36 41 47 51 59
52 47 43 41 39 36 33 34 35 32 28 33 40 45 46 43 42 42 37 39 42 41 41 44 44 40 34 36 40 45 52 58
54 53 48 45 42 40 38 40 41 47 48 48 36 47 49 45 42 39 42 41 43 42 43 45 50 46 38 37 42 44 51 56
57 55 51 48 44 42 42 41 43 48 51 60 78 78 65 47 42 41 39 43 42 43 45 46 54 53 42 38 41 45 52 56
59 55 52 48 45 43 42 42 43 47 49 50 66 69 66 62 45 41 40 41 43 46 46 46 56 57 46 38 41 46 53 58
59 59 56 51 48 46 44 44 47 49 46 47 49 46 47 58 54 39 41 42 43 50 47 47 57 61 48 39 42 49 56 62
66 60 57 50 47 46 46 45 42 48 49 45 42 40 42 54 50 44 44 43 46 48 47 50 60 62 49 41 44 53 60 65
67 62 58 51 47 45 45 46 47 44 43 46 46 42 39 47 56 50 44 47 49 49 49 52 62 61 50 42 46 55 64 75
72 69 66 58 51 47 50 52 56 55 47 49 51 47 42 44 54 53 47 57 56 51 51 57 62 62 51 46 48 56 66 76
78 75 68 62 56 52 56 56 61 66 59 52 51 58 57 60 63 61 58 62 67 57 54 61 64 65 53 49 50 57 65 70
81 75 68 62 57 56 57 59 63 66 63 65 66 70 72 79 83 74 71 73 81 70 62 67 70 67 59 52 50 54 61 66
68 66 64 59 56 56 59 63 66 71 74 76 77 81 83 82 83 84 85 89 87 70 71 73 75 72 63 53 55 57 60 63
67 67 68 66 63 62 61 64 70 71 75 73 80 74 80 85 85 85 88 95 87 79 79 77 78 74 67 60 57 59 60 59
75 74 71 71 71 70 68 68 71 75 77 84 73 86 79 83 76 86 95 97 94 78 83 82 79 74 71 66 63 62 60 58
78 77 75 74 72 73 73 73 74 79 81 81 83 78 83 73 85 86 88 90 94 79 83 81 82 86 83 73 66 67 67 62
74 71 75 81 84 86 86 84 83 84 82 84 85 85 84 80 82 80 81 81 90 93 91 87 87 89 90 88 73 69 70 71

GFSFLT1_prec_cthk_117.txt.gz
RH
41 37 35 33 30 30 28 28 29 30 36 43 45 44 43 42 40 42 37 34 33 30 29 32 34 36 35 33 35 38 39 42
47 43 39 39 37 32 29 28 28 27 31 33 38 37 48 48 44 46 45 38 36 32 31 34 36 37 36 34 36 39 40 43
52 49 47 45 40 35 32 31 31 28 26 26 30 32 39 50 50 50 52 44 37 34 34 35 38 41 40 38 38 38 39 45
60 59 55 46 42 40 36 36 34 32 29 29 31 35 40 56 65 62 58 55 43 38 38 37 40 41 44 40 38 39 42 45
65 65 58 53 52 46 40 37 37 36 37 38 39 31 34 45 61 64 68 59 53 43 41 40 43 44 45 45 41 41 44 45
67 66 62 54 53 47 44 43 41 40 42 42 42 46 51 50 46 55 55 57 52 51 46 42 43 45 47 49 44 42 45 45
66 65 62 57 55 50 47 46 46 45 46 48 47 47 50 63 74 74 60 58 53 53 51 48 44 45 46 51 49 47 46 47
65 66 63 61 58 53 50 49 48 48 50 50 53 53 57 56 70 68 94 62 54 50 52 49 46 46 48 52 54 49 45 45
75 74 70 66 63 58 54 51 49 47 47 50 52 55 55 56 66 73 74 70 64 52 52 53 49 51 52 55 58 52 45 45
85 78 74 72 68 64 61 58 55 52 49 47 46 49 52 50 54 59 58 58 57 54 53 53 51 55 56 57 60 53 45 47
89 82 79 75 71 65 61 57 54 52 52 49 46 46 44 46 50 53 57 62 61 60 56 52 51 56 54 58 61 53 46 48
88 80 76 72 68 62 59 55 53 51 51 49 48 46 44 41 39 46 50 60 65 71 60 59 53 54 55 59 61 54 50 50
92 86 83 76 73 69 63 54 51 57 59 57 56 54 53 55 49 52 54 57 66 76 73 69 59 55 56 62 59 57 52 51
89 87 83 79 75 70 62 57 59 60 64 66 67 66 64 62 58 55 59 64 71 78 78 77 73 62 58 63 62 62 55 51
93 93 85 81 78 73 68 64 61 64 67 68 68 72 72 66 66 72 71 75 82 83 83 86 90 72 66 69 68 65 60 55
84 84 82 77 69 66 63 60 60 67 66 63 69 72 76 78 85 86 86 95 90 87 88 92 89 82 76 73 74 71 64 59
81 77 73 71 71 72 70 69 66 64 64 66 71 73 76 76 83 86 91 89 89 91 90 96 93 81 72 74 74 74 71 64
73 70 72 75 79 79 78 77 74 73 72 70 71 74 78 80 78 83 83 86 84 85 90 97 96 83 82 78 75 79 76 69
74 72 70 70 73 75 80 82 80 80 80 79 76 75 78 83 78 79 86 81 85 86 96 96 97 85 88 77 79 85 85 79

GFSFLT1_prec_cthk_120.txt.gz
RH
37 43 40 38 51 54 52 43 40 45 50 46 49 50 47 42 42 42 41 40 38 36 35 33 33 35 36 35 34 34 36 40
40 50 48 44 40 42 46 47 41 41 43 44 42 41 44 49 44 44 42 42 45 41 39 37 35 36 37 38 39 39 39 40
42 52 54 51 47 43 41 39 37 36 36 35 36 35 38 41 47 50 49 49 52 47 41 39 37 38 40 41 41 44 40 40
36 59 58 57 50 47 42 38 37 37 38 39 39 39 39 39 41 47 48 57 57 56 48 44 40 39 42 45 44 48 45 41
40 60 69 65 57 49 46 42 40 40 41 41 43 42 40 37 38 42 53 64 60 61 61 56 49 43 42 48 48 45 48 46
46 55 68 62 58 57 51 50 46 48 50 50 44 44 44 41 41 42 53 60 69 74 74 62 52 48 47 46 51 49 47 50
55 56 63 62 73 68 62 60 56 59 56 53 52 51 50 47 44 48 54 58 61 68 70 67 59 55 54 51 53 52 50 50
64 61 62 63 65 68 70 69 67 67 63 58 56 55 54 49 49 50 51 67 79 81 83 70 60 58 59 57 53 53 53 53
72 70 66 66 69 75 74 74 70 67 65 63 59 57 55 54 52 54 61 64 68 74 87 71 68 62 59 62 57 55 54 59
81 80 76 74 76 76 77 75 72 70 69 68 65 61 56 52 53 58 60 62 61 67 72 75 69 63 61 62 60 61 61 60
91 89 85 80 82 82 78 74 72 71 70 68 66 61 53 50 50 52 53 55 63 60 69 71 71 63 62 62 61 63 64 60
97 99 94 90 87 83 80 78 77 76 75 70 62 54 51 48 46 45 49 55 60 64 65 68 71 67 63 64 62 63 63 61
96 97 96 94 91 86 82 79 75 70 67 62 56 54 53 52 50 50 48 50 52 58 63 66 67 68 70 70 71 65 62 61
98 96 98 93 90 85 81 76 69 67 69 65 59 59 63 62 61 58 57 56 52 53 62 64 65 72 75 75 79 71 65 63
96 95 98 92 89 84 82 79 76 72 71 64 66 68 70 69 69 67 69 70 65 65 70 71 72 75 80 82 86 80 70 64
97 95 93 93 90 86 82 83 74 72 71 69 68 72 77 75 76 76 76 76 74 70 72 77 84 86 87 90 94 90 77 69
90 90 84 84 87 87 79 73 75 72 67 66 66 70 76 79 78 75 74 79 84 91 92 98 96 93 92 93 95 90 83 79
86 79 73 72 72 71 70 74 76 76 77 77 74 72 72 79 76 76 78 79 85 88 91 92 93 91 92 99 98 95 89 82
87 83 77 74 70 68 69 65 65 70 76 79 81 83 81 78 77 78 82 83 84 87 87 94 88 88 95 97 94 95 95 85

GFSFLT1_prec_cthk_123.txt.gz
RH
11 11 20 29 31 36 42 51 60 57 44 41 46 47 45 45 46 42 39 37 35 35 35 35 35 33 34 36 38 38 39 41
11 12 14 32 33 37 45 53 63 66 53 50 49 51 52 49 48 50 48 46 43 44 44 42 38 37 35 36 38 40 42 42
20 17 15 29 38 39 51 52 65 60 55 54 56 58 55 54 53 50 47 48 48 46 45 48 43 39 38 38 39 40 45 45
25 27 25 25 46 44 49 51 63 59 58 58 57 51 49 47 49 48 49 50 51 53 52 55 48 41 40 40 41 44 47 43
39 42 37 33 53 50 51 43 42 45 49 47 44 40 40 40 41 45 48 51 54 57 59 58 57 54 48 47 46 50 47 46
57 57 54 50 58 68 58 52 44 41 42 48 48 49 46 48 46 46 45 49 56 62 68 70 73 71 66 58 53 49 48 48
64 59 59 65 71 77 68 52 47 45 46 47 53 57 58 59 56 51 45 45 49 53 72 74 79 89 86 74 63 53 52 52
76 66 61 60 71 76 73 62 56 56 56 56 58 63 65 64 64 57 53 50 46 51 60 71 70 77 82 78 73 66 60 58
78 76 69 62 58 63 75 72 73 73 67 66 67 70 71 70 66 63 60 58 54 57 62 80 71 69 73 78 75 73 69 65
83 83 81 74 68 66 68 77 82 83 79 80 70 79 79 72 70 67 61 57 58 62 67 72 82 77 77 75 72 69 69 70
84 88 86 83 80 76 73 74 78 81 75 72 83 77 76 74 74 69 63 60 59 62 69 74 73 68 69 75 72 70 70 69
98 91 89 88 87 84 84 83 89 83 81 85 86 81 79 75 72 66 59 57 58 63 65 69 72 66 66 69 73 69 69 68
97 96 98 95 95 92 87 91 91 93 91 89 86 81 75 71 62 56 51 49 51 57 62 68 71 75 74 72 75 73 73 73
98 96 96 95 98 98 96 94 90 89 87 83 81 78 77 70 63 60 57 55 56 58 59 59 62 65 69 69 71 70 72 78
96 98 98 98 98 98 98 95 90 85 81 78 76 76 75 72 69 67 66 66 66 68 66 65 64 60 59 66 73 74 77 82
95 95 97 97 98 98 96 90 85 82 79 77 74 75 77 75 72 72 72 73 74 77 79 77 76 72 70 75 75 79 89 91
92 88 87 87 87 87 88 88 87 82 77 75 75 72 71 72 72 74 75 80 79 83 81 81 82 80 78 79 80 87 91 94
92 90 87 84 81 75 71 70 70 66 69 72 73 76 77 76 74 73 73 76 78 82 84 82 81 99 94 92 93 95 97 98
88 86 83 79 76 73 70 64 60 58 57 57 60 69 75 78 79 79 77 75 75 80 83 82 81 82 89 96 98 96 97 98

GFSFLT1_prec_cthk_129.txt.gz
RH
31 25 25 22 17 15 17 22 28 39 51 65 63 52 44 39 38 35 37 34 32 37 37 37 35 42 41 38 39 38 41 44
31 26 24 32 34 31 27 23 26 34 54 61 71 56 48 40 34 35 38 40 32 34 36 37 34 36 38 39 43 44 42 43
36 40 33 32 36 35 30 23 21 33 60 61 74 65 53 44 38 34 30 33 34 34 36 42 37 40 41 43 47 52 44 42
52 50 49 40 35 34 25 24 21 29 49 79 72 72 65 54 41 39 37 40 41 36 38 43 44 45 49 49 54 55 54 46
66 65 57 46 42 39 30 23 23 29 47 66 66 77 62 51 48 52 51 52 54 55 51 52 54 52 53 53 57 60 62 57
70 73 75 60 52 42 40 31 30 29 42 54 67 74 71 65 58 66 62 60 64 69 62 65 60 60 61 65 63 69 68 66
76 74 69 80 68 49 50 43 42 40 38 54 68 81 91 87 80 92 71 64 62 70 65 65 67 63 60 64 65 68 69 83
80 75 68 70 65 58 61 66 57 50 46 60 64 80 88 94 80 92 96 80 62 62 58 54 61 59 62 64 66 66 72 71
76 73 76 78 74 75 84 80 73 60 51 67 73 75 86 94 92 83 84 78 67 65 56 52 59 59 67 69 68 69 68 68
88 78 83 97 94 97 92 99 84 67 62 67 84 84 88 81 80 89 74 77 67 66 63 56 62 61 68 73 72 69 72 74
85 84 97 88 93 97 98 95 90 85 84 85 90 92 92 88 91 85 74 76 71 66 66 67 65 66 75 70 73 78 82 81
96 88 96 93 97 87 96 98 98 92 87 83 88 93 90 97 92 85 84 72 63 63 67 66 68 74 77 71 73 77 79 79
97 97 92 97 89 89 89 91 97 98 92 96 91 87 92 93 87 77 70 71 72 73 72 67 66 73 71 69 75 79 78 78
97 97 97 97 95 97 91 96 87 90 94 93 95 89 79 76 68 72 78 80 81 77 72 73 74 72 73 75 80 81 80 81
97 97 97 97 97 96 98 92 94 95 90 84 84 85 69 69 77 80 79 88 83 77 83 84 84 80 77 75 75 77 77 78
95 93 92 96 97 98 97 94 92 89 92 96 93 90 88 85 86 94 92 85 97 92 93 93 92 88 86 85 85 78 78 79
93 91 89 85 85 84 85 88 87 94 90 95 93 91 91 90 96 89 86 89 82 87 90 91 83 89 94 95 99 93 88 86
86 87 87 84 84 81 79 79 75 70 71 67 66 67 69 71 73 74 78 80 78 74 77 79 90 84 90 87 84 81 80 92
69 66 66 67 71 76 74 70 67 64 64 63 61 61 58 55 52 49 52 58 62 66 67 69 69 69 72 71 77 83 90 85